Wetterdaten: Freitag, 27.03.2015
Datum Zeit Temp. Aussen +5cm Feuchte Auss Luftdruck Regen Sonnenschein Regendauer Solar Windben
27.03.2015 00:00 6,1 C 3,9 C 96 % 1008,3 hPa 0,0 l/m 0 min 0 min 0 W/m 12,6 km/h (3 Bft)
27.03.2015 00:02 6,1 C 3,9 C 96 % 1008,3 hPa 0,0 l/m 0 min 0 min 0 W/m 12,6 km/h (3 Bft)
27.03.2015 00:06 6,1 C 3,9 C 96 % 1008,3 hPa 0,0 l/m 0 min 0 min 0 W/m 20,9 km/h (4 Bft)
27.03.2015 00:08 6,1 C 4,4 C 96 % 1008,3 hPa 0,0 l/m 0 min 0 min 0 W/m 18,8 km/h (3 Bft)
27.03.2015 00:10 6,0 C 4,4 C 96 % 1008,3 hPa 0,0 l/m 0 min 0 min 0 W/m 18,8 km/h (3 Bft)
27.03.2015 00:12 6,0 C 4,4 C 96 % 1008,4 hPa 0,0 l/m 0 min 0 min 0 W/m 18,8 km/h (3 Bft)
27.03.2015 00:14 6,0 C 4,4 C 96 % 1008,4 hPa 0,0 l/m 0 min 0 min 0 W/m 18,8 km/h (3 Bft)
27.03.2015 00:16 6,0 C 4,4 C 96 % 1008,5 hPa 0,0 l/m 0 min 0 min 0 W/m 16,7 km/h (3 Bft)
27.03.2015 00:18 6,0 C 4,4 C 96 % 1008,5 hPa 0,0 l/m 0 min 0 min 0 W/m 16,7 km/h (3 Bft)
27.03.2015 00:20 6,0 C 3,9 C 96 % 1008,5 hPa 0,0 l/m 0 min 0 min 0 W/m 16,7 km/h (3 Bft)
27.03.2015 00:22 5,9 C 3,9 C 96 % 1008,5 hPa 0,0 l/m 0 min 0 min 0 W/m 18,8 km/h (3 Bft)
27.03.2015 00:24 5,9 C 3,9 C 96 % 1008,6 hPa 0,0 l/m 0 min 0 min 0 W/m 18,8 km/h (3 Bft)
27.03.2015 00:26 5,9 C 3,9 C 96 % 1008,6 hPa 0,0 l/m 0 min 0 min 0 W/m 18,8 km/h (3 Bft)
27.03.2015 00:28 5,9 C 3,9 C 96 % 1008,6 hPa 0,0 l/m 0 min 0 min 0 W/m 18,8 km/h (3 Bft)
27.03.2015 00:30 5,9 C 3,9 C 96 % 1008,6 hPa 0,0 l/m 0 min 0 min 0 W/m 16,7 km/h (3 Bft)
27.03.2015 00:32 5,9 C 3,9 C 96 % 1008,6 hPa 0,0 l/m 0 min 0 min 0 W/m 20,9 km/h (4 Bft)
27.03.2015 00:34 5,9 C 3,9 C 96 % 1008,6 hPa 0,0 l/m 0 min 0 min 0 W/m 12,6 km/h (3 Bft)
27.03.2015 00:36 5,9 C 3,9 C 96 % 1008,7 hPa 0,0 l/m 0 min 0 min 0 W/m 12,6 km/h (3 Bft)
27.03.2015 00:38 5,9 C 3,9 C 96 % 1008,7 hPa 0,0 l/m 0 min 0 min 0 W/m 20,9 km/h (4 Bft)
27.03.2015 00:40 5,9 C 3,9 C 96 % 1008,7 hPa 0,0 l/m 0 min 0 min 0 W/m 20,9 km/h (4 Bft)
27.03.2015 00:42 5,9 C 3,9 C 96 % 1008,7 hPa 0,0 l/m 0 min 0 min 0 W/m 18,8 km/h (3 Bft)
27.03.2015 00:44 5,9 C 3,9 C 96 % 1008,7 hPa 0,0 l/m 0 min 0 min 0 W/m 16,7 km/h (3 Bft)
27.03.2015 00:46 5,9 C 3,9 C 96 % 1008,8 hPa 0,0 l/m 0 min 0 min 0 W/m 20,9 km/h (4 Bft)
27.03.2015 00:48 5,9 C 3,9 C 96 % 1008,8 hPa 0,0 l/m 0 min 0 min 0 W/m 18,8 km/h (3 Bft)
27.03.2015 00:50 5,8 C 3,9 C 96 % 1008,8 hPa 0,0 l/m 0 min 0 min 0 W/m 18,8 km/h (3 Bft)
27.03.2015 00:52 5,8 C 3,9 C 96 % 1008,9 hPa 0,0 l/m 0 min 0 min 0 W/m 18,8 km/h (3 Bft)
27.03.2015 00:54 5,8 C 3,9 C 96 % 1008,9 hPa 0,0 l/m 0 min 0 min 0 W/m 18,8 km/h (3 Bft)
27.03.2015 00:56 5,8 C 3,9 C 96 % 1008,9 hPa 0,0 l/m 0 min 0 min 0 W/m 18,8 km/h (3 Bft)
27.03.2015 00:58 5,8 C 3,9 C 96 % 1008,9 hPa 0,0 l/m 0 min 0 min 0 W/m 14,6 km/h (3 Bft)
27.03.2015 01:00 5,8 C 4,4 C 96 % 1009,0 hPa 0,0 l/m 0 min 0 min 0 W/m 16,7 km/h (3 Bft)
27.03.2015 01:02 5,8 C 4,4 C 96 % 1009,1 hPa 0,0 l/m 0 min 0 min 0 W/m 16,7 km/h (3 Bft)
27.03.2015 01:04 5,8 C 4,4 C 96 % 1009,1 hPa 0,0 l/m 0 min 0 min 0 W/m 14,6 km/h (3 Bft)
27.03.2015 01:06 5,8 C 4,4 C 96 % 1009,0 hPa 0,0 l/m 0 min 0 min 0 W/m 23,0 km/h (4 Bft)
27.03.2015 01:08 5,9 C 4,4 C 96 % 1009,1 hPa 0,0 l/m 0 min 0 min 0 W/m 25,1 km/h (4 Bft)
27.03.2015 01:10 5,9 C 4,4 C 96 % 1009,1 hPa 0,0 l/m 0 min 0 min 0 W/m 20,9 km/h (4 Bft)
27.03.2015 01:12 5,9 C 4,4 C 96 % 1009,1 hPa 0,0 l/m 0 min 0 min 0 W/m 16,7 km/h (3 Bft)
27.03.2015 01:14 5,9 C 4,4 C 96 % 1009,2 hPa 0,0 l/m 0 min 0 min 0 W/m 25,1 km/h (4 Bft)
27.03.2015 01:16 5,9 C 4,4 C 96 % 1009,2 hPa 0,0 l/m 0 min 0 min 0 W/m 20,9 km/h (4 Bft)
27.03.2015 01:18 5,9 C 4,4 C 96 % 1009,3 hPa 0,0 l/m 0 min 0 min 0 W/m 18,8 km/h (3 Bft)
27.03.2015 01:20 5,9 C 4,4 C 96 % 1009,3 hPa 0,0 l/m 0 min 0 min 0 W/m 18,8 km/h (3 Bft)
27.03.2015 01:22 5,9 C 4,4 C 96 % 1009,3 hPa 0,0 l/m 0 min 0 min 0 W/m 18,8 km/h (3 Bft)
27.03.2015 01:24 5,9 C 4,4 C 96 % 1009,4 hPa 0,0 l/m 0 min 0 min 0 W/m 14,6 km/h (3 Bft)
27.03.2015 01:26 5,9 C 4,4 C 96 % 1009,4 hPa 0,0 l/m 0 min 0 min 0 W/m 18,8 km/h (3 Bft)
27.03.2015 01:28 5,9 C 4,4 C 96 % 1009,5 hPa 0,0 l/m 0 min 0 min 0 W/m 20,9 km/h (4 Bft)
27.03.2015 01:30 5,9 C 4,4 C 95 % 1009,4 hPa 0,0 l/m 0 min 0 min 0 W/m 23,0 km/h (4 Bft)
27.03.2015 01:32 5,9 C 4,4 C 95 % 1009,4 hPa 0,0 l/m 0 min 0 min 0 W/m 20,9 km/h (4 Bft)
27.03.2015 01:34 5,9 C 4,4 C 95 % 1009,5 hPa 0,0 l/m 0 min 0 min 0 W/m 14,6 km/h (3 Bft)
27.03.2015 01:36 6,0 C 4,4 C 95 % 1009,5 hPa 0,0 l/m 0 min 0 min 0 W/m 18,8 km/h (3 Bft)
27.03.2015 01:38 5,9 C 4,4 C 95 % 1009,5 hPa 0,0 l/m 0 min 0 min 0 W/m 12,6 km/h (3 Bft)
27.03.2015 01:40 5,9 C 4,4 C 95 % 1009,7 hPa 0,0 l/m 0 min 0 min 0 W/m 12,6 km/h (3 Bft)
27.03.2015 01:42 6,0 C 4,4 C 95 % 1009,6 hPa 0,0 l/m 0 min 0 min 0 W/m 18,8 km/h (3 Bft)
27.03.2015 01:44 6,0 C 4,4 C 95 % 1009,5 hPa 0,0 l/m 0 min 0 min 0 W/m 18,8 km/h (3 Bft)
27.03.2015 01:46 6,0 C 4,4 C 95 % 1009,5 hPa 0,0 l/m 0 min 0 min 0 W/m 16,7 km/h (3 Bft)
27.03.2015 01:48 6,0 C 4,4 C 95 % 1009,6 hPa 0,0 l/m 0 min 0 min 0 W/m 16,7 km/h (3 Bft)
27.03.2015 01:50 6,0 C 4,4 C 95 % 1009,6 hPa 0,0 l/m 0 min 0 min 0 W/m 16,7 km/h (3 Bft)
27.03.2015 01:52 6,0 C 4,4 C 95 % 1009,7 hPa 0,0 l/m 0 min 0 min 0 W/m 14,6 km/h (3 Bft)
27.03.2015 01:54 6,0 C 4,4 C 95 % 1009,7 hPa 0,0 l/m 0 min 0 min 0 W/m 16,7 km/h (3 Bft)
27.03.2015 01:56 6,0 C 4,4 C 95 % 1009,7 hPa 0,0 l/m 0 min 0 min 0 W/m 16,7 km/h (3 Bft)
27.03.2015 01:58 6,0 C 4,4 C 94 % 1009,7 hPa 0,0 l/m 0 min 0 min 0 W/m 20,9 km/h (4 Bft)
27.03.2015 02:00 6,0 C 4,4 C 94 % 1009,7 hPa 0,0 l/m 0 min 0 min 0 W/m 18,8 km/h (3 Bft)
27.03.2015 02:02 6,0 C 4,4 C 94 % 1009,7 hPa 0,0 l/m 0 min 2 min 0 W/m 23,0 km/h (4 Bft)
27.03.2015 02:04 6,0 C 4,4 C 94 % 1009,7 hPa 0,0 l/m 0 min 2 min 0 W/m 23,0 km/h (4 Bft)
27.03.2015 02:06 6,0 C 4,4 C 94 % 1009,8 hPa 0,0 l/m 0 min 2 min 0 W/m 23,0 km/h (4 Bft)
27.03.2015 02:08 6,0 C 4,4 C 94 % 1009,7 hPa 0,0 l/m 0 min 2 min 0 W/m 25,1 km/h (4 Bft)
27.03.2015 02:10 6,0 C 4,4 C 93 % 1009,7 hPa 0,0 l/m 0 min 2 min 0 W/m 14,6 km/h (3 Bft)
27.03.2015 02:12 6,0 C 3,9 C 93 % 1009,7 hPa 0,0 l/m 0 min 0 min 0 W/m 14,6 km/h (3 Bft)
27.03.2015 02:14 6,0 C 3,9 C 93 % 1009,7 hPa 0,0 l/m 0 min 0 min 0 W/m 16,7 km/h (3 Bft)
27.03.2015 02:16 6,0 C 3,9 C 93 % 1009,7 hPa 0,0 l/m 0 min 0 min 0 W/m 18,8 km/h (3 Bft)
27.03.2015 02:18 6,0 C 3,9 C 93 % 1009,8 hPa 0,0 l/m 0 min 0 min 0 W/m 18,8 km/h (3 Bft)
27.03.2015 02:20 6,0 C 3,9 C 93 % 1009,8 hPa 0,0 l/m 0 min 0 min 0 W/m 20,9 km/h (4 Bft)
27.03.2015 02:22 6,0 C 3,9 C 92 % 1009,8 hPa 0,0 l/m 0 min 0 min 0 W/m 18,8 km/h (3 Bft)
27.03.2015 02:24 6,0 C 3,9 C 92 % 1009,8 hPa 0,0 l/m 0 min 0 min 0 W/m 16,7 km/h (3 Bft)
27.03.2015 02:26 6,0 C 3,9 C 92 % 1009,8 hPa 0,0 l/m 0 min 0 min 0 W/m 18,8 km/h (3 Bft)
27.03.2015 02:28 6,0 C 3,9 C 92 % 1009,8 hPa 0,0 l/m 0 min 0 min 0 W/m 14,6 km/h (3 Bft)
27.03.2015 02:30 6,0 C 3,9 C 92 % 1009,9 hPa 0,0 l/m 0 min 0 min 0 W/m 16,7 km/h (3 Bft)
27.03.2015 02:32 6,0 C 3,9 C 92 % 1009,9 hPa 0,0 l/m 0 min 0 min 0 W/m 18,8 km/h (3 Bft)
27.03.2015 02:34 6,0 C 3,9 C 91 % 1009,9 hPa 0,0 l/m 0 min 0 min 0 W/m 14,6 km/h (3 Bft)
27.03.2015 02:36 6,0 C 3,9 C 91 % 1009,9 hPa 0,0 l/m 0 min 0 min 0 W/m 16,7 km/h (3 Bft)
27.03.2015 02:38 6,0 C 3,9 C 91 % 1009,9 hPa 0,0 l/m 0 min 0 min 0 W/m 18,8 km/h (3 Bft)
27.03.2015 02:40 6,0 C 3,9 C 91 % 1010,0 hPa 0,0 l/m 0 min 0 min 0 W/m 20,9 km/h (4 Bft)
27.03.2015 02:42 6,0 C 3,9 C 91 % 1009,9 hPa 0,0 l/m 0 min 0 min 0 W/m 12,6 km/h (3 Bft)
27.03.2015 02:44 6,0 C 3,9 C 91 % 1010,0 hPa 0,0 l/m 0 min 0 min 0 W/m 25,1 km/h (4 Bft)
27.03.2015 02:46 5,9 C 3,9 C 91 % 1010,0 hPa 0,0 l/m 0 min 0 min 0 W/m 16,7 km/h (3 Bft)
27.03.2015 02:48 5,9 C 3,9 C 90 % 1010,1 hPa 0,0 l/m 0 min 0 min 0 W/m 14,6 km/h (3 Bft)
27.03.2015 02:50 5,9 C 3,9 C 90 % 1010,0 hPa 0,0 l/m 0 min 0 min 0 W/m 18,8 km/h (3 Bft)
27.03.2015 02:52 5,9 C 3,9 C 90 % 1010,0 hPa 0,0 l/m 0 min 0 min 0 W/m 20,9 km/h (4 Bft)
27.03.2015 02:54 5,9 C 3,9 C 90 % 1010,1 hPa 0,0 l/m 0 min 0 min 0 W/m 18,8 km/h (3 Bft)
27.03.2015 02:56 5,9 C 3,9 C 90 % 1010,1 hPa 0,0 l/m 0 min 0 min 0 W/m 16,7 km/h (3 Bft)
27.03.2015 02:58 5,9 C 3,9 C 90 % 1010,2 hPa 0,0 l/m 0 min 0 min 0 W/m 12,6 km/h (3 Bft)
27.03.2015 03:00 5,9 C 3,9 C 90 % 1010,2 hPa 0,0 l/m 0 min 0 min 0 W/m 20,9 km/h (4 Bft)
27.03.2015 03:02 5,9 C 3,9 C 90 % 1010,2 hPa 0,0 l/m 0 min 0 min 0 W/m 16,7 km/h (3 Bft)
27.03.2015 03:04 5,9 C 3,9 C 90 % 1010,2 hPa 0,0 l/m 0 min 0 min 0 W/m 14,6 km/h (3 Bft)
27.03.2015 03:06 5,9 C 3,9 C 90 % 1010,2 hPa 0,0 l/m 0 min 0 min 0 W/m 18,8 km/h (3 Bft)
27.03.2015 03:08 5,9 C 3,9 C 90 % 1010,2 hPa 0,0 l/m 0 min 0 min 0 W/m 18,8 km/h (3 Bft)
27.03.2015 03:10 5,9 C 3,9 C 90 % 1010,3 hPa 0,0 l/m 0 min 0 min 0 W/m 20,9 km/h (4 Bft)
27.03.2015 03:12 5,9 C 3,9 C 90 % 1010,3 hPa 0,0 l/m 0 min 0 min 0 W/m 20,9 km/h (4 Bft)
27.03.2015 03:14 5,9 C 3,9 C 89 % 1010,2 hPa 0,0 l/m 0 min 0 min 0 W/m 18,8 km/h (3 Bft)
27.03.2015 03:16 5,9 C 3,9 C 89 % 1010,3 hPa 0,0 l/m 0 min 0 min 0 W/m 25,1 km/h (4 Bft)
27.03.2015 03:18 5,9 C 3,9 C 89 % 1010,3 hPa 0,0 l/m 0 min 0 min 0 W/m 20,9 km/h (4 Bft)
27.03.2015 03:20 5,9 C 3,9 C 89 % 1010,4 hPa 0,0 l/m 0 min 0 min 0 W/m 20,9 km/h (4 Bft)
27.03.2015 03:22 5,9 C 3,9 C 89 % 1010,4 hPa 0,0 l/m 0 min 0 min 0 W/m 18,8 km/h (3 Bft)
27.03.2015 03:24 5,9 C 3,9 C 89 % 1010,4 hPa 0,0 l/m 0 min 0 min 0 W/m 16,7 km/h (3 Bft)
27.03.2015 03:26 5,9 C 3,9 C 89 % 1010,4 hPa 0,0 l/m 0 min 0 min 0 W/m 25,1 km/h (4 Bft)
27.03.2015 03:28 5,8 C 3,9 C 89 % 1010,5 hPa 0,0 l/m 0 min 0 min 0 W/m 18,8 km/h (3 Bft)
27.03.2015 03:30 5,8 C 3,9 C 89 % 1010,4 hPa 0,0 l/m 0 min 0 min 0 W/m 18,8 km/h (3 Bft)
27.03.2015 03:32 5,8 C 3,3 C 89 % 1010,5 hPa 0,0 l/m 0 min 0 min 0 W/m 18,8 km/h (3 Bft)
27.03.2015 03:34 5,8 C 3,3 C 89 % 1010,5 hPa 0,0 l/m 0 min 0 min 0 W/m 20,9 km/h (4 Bft)
27.03.2015 03:36 5,7 C 3,3 C 89 % 1010,6 hPa 0,0 l/m 0 min 0 min 0 W/m 20,9 km/h (4 Bft)
27.03.2015 03:38 5,7 C 3,3 C 89 % 1010,5 hPa 0,0 l/m 0 min 0 min 0 W/m 20,9 km/h (4 Bft)
27.03.2015 03:40 5,7 C 3,3 C 89 % 1010,5 hPa 0,0 l/m 0 min 0 min 0 W/m 20,9 km/h (4 Bft)
27.03.2015 03:42 5,7 C 3,3 C 88 % 1010,6 hPa 0,0 l/m 0 min 0 min 0 W/m 16,7 km/h (3 Bft)
27.03.2015 03:44 5,6 C 3,3 C 88 % 1010,6 hPa 0,0 l/m 0 min 0 min 0 W/m 18,8 km/h (3 Bft)
27.03.2015 03:46 5,6 C 3,3 C 88 % 1010,6 hPa 0,0 l/m 0 min 0 min 0 W/m 20,9 km/h (4 Bft)
27.03.2015 03:48 5,6 C 3,3 C 88 % 1010,6 hPa 0,0 l/m 0 min 0 min 0 W/m 18,8 km/h (3 Bft)
27.03.2015 03:50 5,5 C 3,3 C 88 % 1010,6 hPa 0,0 l/m 0 min 0 min 0 W/m 25,1 km/h (4 Bft)
27.03.2015 03:52 5,5 C 3,3 C 88 % 1010,7 hPa 0,0 l/m 0 min 0 min 0 W/m 20,9 km/h (4 Bft)
27.03.2015 03:54 5,4 C 3,3 C 88 % 1010,7 hPa 0,0 l/m 0 min 0 min 0 W/m 12,6 km/h (3 Bft)
27.03.2015 03:56 5,4 C 3,3 C 88 % 1010,7 hPa 0,0 l/m 0 min 0 min 0 W/m 23,0 km/h (4 Bft)
27.03.2015 03:58 5,4 C 3,3 C 88 % 1010,8 hPa 0,0 l/m 0 min 0 min 0 W/m 14,6 km/h (3 Bft)
27.03.2015 04:00 5,4 C 3,3 C 88 % 1010,9 hPa 0,0 l/m 0 min 0 min 0 W/m 14,6 km/h (3 Bft)
27.03.2015 04:02 5,4 C 3,3 C 88 % 1010,9 hPa 0,0 l/m 0 min 0 min 0 W/m 14,6 km/h (3 Bft)
27.03.2015 04:07 5,3 C 3,3 C 88 % 1010,9 hPa 0,0 l/m 0 min 0 min 0 W/m 20,9 km/h (4 Bft)
27.03.2015 04:08 5,3 C 3,3 C 88 % 1010,9 hPa 0,0 l/m 0 min 0 min 0 W/m 18,8 km/h (3 Bft)
27.03.2015 04:10 5,3 C 3,3 C 88 % 1010,9 hPa 0,0 l/m 0 min 0 min 0 W/m 18,8 km/h (3 Bft)
27.03.2015 04:12 5,2 C 3,3 C 89 % 1011,0 hPa 0,0 l/m 0 min 0 min 0 W/m 16,7 km/h (3 Bft)
27.03.2015 04:14 5,2 C 3,3 C 89 % 1011,0 hPa 0,0 l/m 0 min 0 min 0 W/m 14,6 km/h (3 Bft)
27.03.2015 04:16 5,2 C 3,3 C 88 % 1011,0 hPa 0,0 l/m 0 min 0 min 0 W/m 23,0 km/h (4 Bft)
27.03.2015 04:18 5,2 C 2,8 C 89 % 1011,0 hPa 0,0 l/m 0 min 0 min 0 W/m 14,6 km/h (3 Bft)
27.03.2015 04:20 5,1 C 2,8 C 89 % 1011,0 hPa 0,0 l/m 0 min 0 min 0 W/m 18,8 km/h (3 Bft)
27.03.2015 04:22 5,1 C 2,8 C 89 % 1011,0 hPa 0,0 l/m 0 min 0 min 0 W/m 18,8 km/h (3 Bft)
27.03.2015 04:24 5,1 C 2,8 C 89 % 1011,0 hPa 0,0 l/m 0 min 0 min 0 W/m 20,9 km/h (4 Bft)
27.03.2015 04:26 5,0 C 2,8 C 89 % 1011,0 hPa 0,0 l/m 0 min 0 min 0 W/m 20,9 km/h (4 Bft)
27.03.2015 04:28 5,0 C 2,8 C 89 % 1011,1 hPa 0,0 l/m 0 min 0 min 0 W/m 16,7 km/h (3 Bft)
27.03.2015 04:30 5,0 C 2,8 C 89 % 1011,1 hPa 0,0 l/m 0 min 0 min 0 W/m 18,8 km/h (3 Bft)
27.03.2015 04:32 4,9 C 2,8 C 89 % 1011,1 hPa 0,0 l/m 0 min 0 min 0 W/m 16,7 km/h (3 Bft)
27.03.2015 04:34 4,9 C 2,8 C 89 % 1011,1 hPa 0,0 l/m 0 min 0 min 0 W/m 20,9 km/h (4 Bft)
27.03.2015 04:36 4,9 C 2,8 C 89 % 1011,1 hPa 0,0 l/m 0 min 0 min 0 W/m 18,8 km/h (3 Bft)
27.03.2015 04:38 4,9 C 2,8 C 89 % 1011,2 hPa 0,0 l/m 0 min 0 min 0 W/m 12,6 km/h (3 Bft)
27.03.2015 04:40 4,9 C 2,8 C 89 % 1011,2 hPa 0,0 l/m 0 min 0 min 0 W/m 18,8 km/h (3 Bft)
27.03.2015 04:42 4,9 C 2,8 C 89 % 1011,2 hPa 0,0 l/m 0 min 0 min 0 W/m 16,7 km/h (3 Bft)
27.03.2015 04:44 4,9 C 2,8 C 89 % 1011,3 hPa 0,0 l/m 0 min 0 min 0 W/m 16,7 km/h (3 Bft)
27.03.2015 04:46 4,9 C 2,8 C 89 % 1011,3 hPa 0,0 l/m 0 min 0 min 0 W/m 20,9 km/h (4 Bft)
27.03.2015 04:48 4,9 C 3,3 C 90 % 1011,4 hPa 0,0 l/m 0 min 0 min 0 W/m 18,8 km/h (3 Bft)
27.03.2015 04:50 4,8 C 3,3 C 90 % 1011,4 hPa 0,0 l/m 0 min 0 min 0 W/m 18,8 km/h (3 Bft)
27.03.2015 04:52 4,8 C 3,3 C 90 % 1011,4 hPa 0,0 l/m 0 min 0 min 0 W/m 20,9 km/h (4 Bft)
27.03.2015 04:54 4,8 C 3,3 C 90 % 1011,5 hPa 0,0 l/m 0 min 0 min 0 W/m 27,2 km/h (4 Bft)
27.03.2015 04:56 4,9 C 3,3 C 90 % 1011,5 hPa 0,0 l/m 0 min 0 min 0 W/m 18,8 km/h (3 Bft)
27.03.2015 04:58 4,9 C 3,3 C 90 % 1011,5 hPa 0,0 l/m 0 min 0 min 0 W/m 18,8 km/h (3 Bft)
27.03.2015 05:00 4,9 C 3,3 C 90 % 1011,5 hPa 0,0 l/m 0 min 0 min 0 W/m 23,0 km/h (4 Bft)
27.03.2015 05:02 4,9 C 3,3 C 90 % 1011,5 hPa 0,0 l/m 0 min 0 min 0 W/m 16,7 km/h (3 Bft)
27.03.2015 05:04 4,9 C 3,3 C 90 % 1011,6 hPa 0,0 l/m 0 min 0 min 0 W/m 23,0 km/h (4 Bft)
27.03.2015 05:06 4,9 C 3,3 C 90 % 1011,6 hPa 0,0 l/m 0 min 0 min 0 W/m 18,8 km/h (3 Bft)
27.03.2015 05:08 4,9 C 3,3 C 90 % 1011,6 hPa 0,0 l/m 0 min 0 min 0 W/m 20,9 km/h (4 Bft)
27.03.2015 05:10 4,9 C 3,3 C 90 % 1011,8 hPa 0,0 l/m 0 min 0 min 0 W/m 18,8 km/h (3 Bft)
27.03.2015 05:12 4,9 C 3,3 C 90 % 1011,8 hPa 0,0 l/m 0 min 0 min 0 W/m 20,9 km/h (4 Bft)
27.03.2015 05:14 4,9 C 3,3 C 90 % 1011,8 hPa 0,0 l/m 0 min 0 min 0 W/m 23,0 km/h (4 Bft)
27.03.2015 05:16 4,9 C 3,3 C 90 % 1011,9 hPa 0,0 l/m 0 min 0 min 0 W/m 14,6 km/h (3 Bft)
27.03.2015 05:18 4,9 C 3,3 C 90 % 1011,8 hPa 0,0 l/m 0 min 0 min 0 W/m 20,9 km/h (4 Bft)
27.03.2015 05:20 4,9 C 3,3 C 90 % 1011,8 hPa 0,0 l/m 0 min 0 min 0 W/m 20,9 km/h (4 Bft)
27.03.2015 05:22 4,9 C 3,3 C 90 % 1011,8 hPa 0,0 l/m 0 min 0 min 0 W/m 23,0 km/h (4 Bft)
27.03.2015 05:24 5,0 C 3,3 C 90 % 1011,9 hPa 0,0 l/m 0 min 0 min 0 W/m 16,7 km/h (3 Bft)
27.03.2015 05:26 5,0 C 3,3 C 90 % 1011,9 hPa 0,0 l/m 0 min 2 min 0 W/m 20,9 km/h (4 Bft)
27.03.2015 05:28 5,0 C 3,3 C 90 % 1012,0 hPa 0,0 l/m 0 min 0 min 0 W/m 18,8 km/h (3 Bft)
27.03.2015 05:30 5,0 C 3,3 C 90 % 1012,0 hPa 0,0 l/m 0 min 0 min 0 W/m 16,7 km/h (3 Bft)
27.03.2015 05:32 5,0 C 3,3 C 90 % 1011,9 hPa 0,0 l/m 0 min 0 min 0 W/m 25,1 km/h (4 Bft)
27.03.2015 05:34 5,0 C 3,3 C 90 % 1012,0 hPa 0,0 l/m 0 min 2 min 0 W/m 20,9 km/h (4 Bft)
27.03.2015 05:36 5,0 C 3,3 C 90 % 1012,0 hPa 0,0 l/m 0 min 0 min 0 W/m 25,1 km/h (4 Bft)
27.03.2015 05:38 5,1 C 3,3 C 90 % 1012,0 hPa 0,0 l/m 0 min 0 min 0 W/m 18,8 km/h (3 Bft)
27.03.2015 05:40 5,1 C 3,3 C 90 % 1012,0 hPa 0,0 l/m 0 min 0 min 0 W/m 20,9 km/h (4 Bft)
27.03.2015 05:42 5,1 C 3,3 C 90 % 1012,0 hPa 0,0 l/m 0 min 2 min 0 W/m 20,9 km/h (4 Bft)
27.03.2015 05:44 5,1 C 3,3 C 90 % 1012,1 hPa 0,0 l/m 0 min 2 min 0 W/m 16,7 km/h (3 Bft)
27.03.2015 05:46 5,1 C 3,3 C 90 % 1012,0 hPa 0,0 l/m 0 min 2 min 0 W/m 14,6 km/h (3 Bft)
27.03.2015 05:48 5,1 C 3,3 C 90 % 1012,1 hPa 0,0 l/m 0 min 2 min 0 W/m 20,9 km/h (4 Bft)
27.03.2015 05:50 5,1 C 3,3 C 90 % 1012,2 hPa 0,0 l/m 0 min 2 min 0 W/m 16,7 km/h (3 Bft)
27.03.2015 05:52 5,1 C 3,3 C 90 % 1012,1 hPa 0,0 l/m 0 min 0 min 0 W/m 18,8 km/h (3 Bft)
27.03.2015 05:54 5,1 C 3,3 C 90 % 1012,2 hPa 0,0 l/m 0 min 0 min 0 W/m 18,8 km/h (3 Bft)
27.03.2015 05:56 5,1 C 3,3 C 90 % 1012,3 hPa 0,0 l/m 0 min 0 min 0 W/m 23,0 km/h (4 Bft)
27.03.2015 05:58 5,1 C 3,3 C 90 % 1012,2 hPa 0,0 l/m 0 min 0 min 0 W/m 23,0 km/h (4 Bft)
27.03.2015 06:00 5,1 C 3,3 C 90 % 1012,3 hPa 0,0 l/m 0 min 0 min 0 W/m 25,1 km/h (4 Bft)
27.03.2015 06:02 5,1 C 3,3 C 90 % 1012,4 hPa 0,0 l/m 0 min 0 min 0 W/m 33,5 km/h (5 Bft)
27.03.2015 06:06 5,1 C 3,3 C 90 % 1012,4 hPa 0,0 l/m 0 min 0 min 0 W/m 23,0 km/h (4 Bft)
27.03.2015 06:08 5,1 C 3,3 C 90 % 1012,4 hPa 0,0 l/m 0 min 0 min 0 W/m 18,8 km/h (3 Bft)
27.03.2015 06:10 5,1 C 3,3 C 89 % 1012,4 hPa 0,0 l/m 0 min 0 min 0 W/m 20,9 km/h (4 Bft)
27.03.2015 06:12 5,1 C 3,3 C 89 % 1012,5 hPa 0,0 l/m 0 min 0 min 0 W/m 14,6 km/h (3 Bft)
27.03.2015 06:14 5,1 C 3,3 C 89 % 1012,5 hPa 0,0 l/m 0 min 0 min 0 W/m 27,2 km/h (4 Bft)
27.03.2015 06:16 5,1 C 3,3 C 89 % 1012,5 hPa 0,0 l/m 0 min 0 min 0 W/m 35,6 km/h (5 Bft)
27.03.2015 06:18 5,1 C 3,3 C 89 % 1012,5 hPa 0,0 l/m 0 min 0 min 0 W/m 23,0 km/h (4 Bft)
27.03.2015 06:20 5,1 C 3,3 C 89 % 1012,5 hPa 0,0 l/m 0 min 0 min 0 W/m 20,9 km/h (4 Bft)
27.03.2015 06:22 5,1 C 3,3 C 89 % 1012,6 hPa 0,0 l/m 0 min 0 min 0 W/m 14,6 km/h (3 Bft)
27.03.2015 06:24 5,1 C 3,3 C 89 % 1012,6 hPa 0,0 l/m 0 min 0 min 0 W/m 25,1 km/h (4 Bft)
27.03.2015 06:26 5,1 C 3,3 C 89 % 1012,6 hPa 0,0 l/m 0 min 0 min 4 W/m 20,9 km/h (4 Bft)
27.03.2015 06:28 5,1 C 3,3 C 89 % 1012,7 hPa 0,0 l/m 0 min 0 min 5 W/m 29,3 km/h (5 Bft)
27.03.2015 06:30 5,1 C 3,3 C 89 % 1012,8 hPa 0,0 l/m 0 min 0 min 7 W/m 23,0 km/h (4 Bft)
27.03.2015 06:32 5,1 C 3,3 C 89 % 1012,8 hPa 0,0 l/m 0 min 0 min 7 W/m 18,8 km/h (3 Bft)
27.03.2015 06:34 5,1 C 3,3 C 89 % 1012,8 hPa 0,0 l/m 0 min 0 min 7 W/m 20,9 km/h (4 Bft)
27.03.2015 06:36 5,1 C 3,3 C 89 % 1012,8 hPa 0,0 l/m 0 min 0 min 7 W/m 27,2 km/h (4 Bft)
27.03.2015 06:38 5,1 C 3,3 C 89 % 1012,9 hPa 0,0 l/m 0 min 0 min 7 W/m 23,0 km/h (4 Bft)
27.03.2015 06:40 5,1 C 3,3 C 89 % 1012,9 hPa 0,0 l/m 0 min 0 min 7 W/m 25,1 km/h (4 Bft)
27.03.2015 06:42 5,1 C 3,3 C 89 % 1013,0 hPa 0,0 l/m 0 min 0 min 9 W/m 20,9 km/h (4 Bft)
27.03.2015 06:44 5,1 C 3,3 C 89 % 1012,9 hPa 0,0 l/m 0 min 0 min 11 W/m 23,0 km/h (4 Bft)
27.03.2015 06:46 5,1 C 3,3 C 89 % 1013,0 hPa 0,0 l/m 0 min 0 min 11 W/m 20,9 km/h (4 Bft)
27.03.2015 06:48 5,1 C 3,3 C 89 % 1013,0 hPa 0,0 l/m 0 min 0 min 12 W/m 27,2 km/h (4 Bft)
27.03.2015 06:50 5,1 C 3,3 C 89 % 1013,0 hPa 0,0 l/m 0 min 0 min 12 W/m 27,2 km/h (4 Bft)
27.03.2015 06:52 5,1 C 3,3 C 89 % 1013,1 hPa 0,0 l/m 0 min 0 min 12 W/m 25,1 km/h (4 Bft)
27.03.2015 06:54 5,1 C 3,3 C 89 % 1013,1 hPa 0,0 l/m 0 min 0 min 14 W/m 20,9 km/h (4 Bft)
27.03.2015 06:56 5,1 C 3,3 C 89 % 1013,2 hPa 0,0 l/m 0 min 0 min 18 W/m 20,9 km/h (4 Bft)
27.03.2015 06:58 5,1 C 3,3 C 89 % 1013,2 hPa 0,0 l/m 0 min 0 min 24 W/m 27,2 km/h (4 Bft)
27.03.2015 07:00 5,1 C 3,3 C 89 % 1013,3 hPa 0,0 l/m 0 min 0 min 26 W/m 29,3 km/h (5 Bft)
27.03.2015 07:02 5,1 C 3,3 C 89 % 1013,3 hPa 0,0 l/m 0 min 0 min 29 W/m 16,7 km/h (3 Bft)
27.03.2015 07:04 5,1 C 3,3 C 89 % 1013,3 hPa 0,0 l/m 0 min 0 min 35 W/m 18,8 km/h (3 Bft)
27.03.2015 07:06 5,1 C 3,9 C 89 % 1013,3 hPa 0,0 l/m 0 min 0 min 36 W/m 20,9 km/h (4 Bft)
27.03.2015 07:08 5,1 C 3,9 C 89 % 1013,4 hPa 0,0 l/m 0 min 0 min 34 W/m 27,2 km/h (4 Bft)
27.03.2015 07:10 5,1 C 3,9 C 89 % 1013,4 hPa 0,0 l/m 0 min 0 min 28 W/m 23,0 km/h (4 Bft)
27.03.2015 07:12 5,2 C 3,9 C 89 % 1013,5 hPa 0,0 l/m 0 min 0 min 31 W/m 20,9 km/h (4 Bft)
27.03.2015 07:14 5,2 C 3,9 C 89 % 1013,5 hPa 0,0 l/m 0 min 0 min 31 W/m 20,9 km/h (4 Bft)
27.03.2015 07:16 5,2 C 3,9 C 89 % 1013,5 hPa 0,0 l/m 0 min 0 min 31 W/m 31,4 km/h (5 Bft)
27.03.2015 07:18 5,2 C 3,9 C 89 % 1013,6 hPa 0,0 l/m 0 min 0 min 35 W/m 23,0 km/h (4 Bft)
27.03.2015 07:20 5,2 C 3,9 C 89 % 1013,7 hPa 0,0 l/m 0 min 0 min 40 W/m 20,9 km/h (4 Bft)
27.03.2015 07:22 5,2 C 3,9 C 89 % 1013,7 hPa 0,0 l/m 0 min 0 min 59 W/m 18,8 km/h (3 Bft)
27.03.2015 07:24 5,2 C 3,9 C 89 % 1013,8 hPa 0,0 l/m 2 min 0 min 82 W/m 23,0 km/h (4 Bft)
27.03.2015 07:26 5,2 C 3,9 C 89 % 1013,8 hPa 0,0 l/m 2 min 0 min 113 W/m 29,3 km/h (5 Bft)
27.03.2015 07:28 5,3 C 3,9 C 89 % 1013,7 hPa 0,0 l/m 0 min 0 min 63 W/m 23,0 km/h (4 Bft)
27.03.2015 07:30 5,3 C 3,9 C 89 % 1013,9 hPa 0,0 l/m 0 min 0 min 59 W/m 20,9 km/h (4 Bft)
27.03.2015 07:32 5,3 C 3,9 C 89 % 1013,9 hPa 0,0 l/m 0 min 0 min 66 W/m 27,2 km/h (4 Bft)
27.03.2015 07:34 5,3 C 3,9 C 89 % 1013,9 hPa 0,0 l/m 0 min 0 min 85 W/m 25,1 km/h (4 Bft)
27.03.2015 07:36 5,3 C 3,9 C 89 % 1014,0 hPa 0,0 l/m 2 min 0 min 181 W/m 27,2 km/h (4 Bft)
27.03.2015 07:38 5,4 C 4,4 C 89 % 1014,0 hPa 0,0 l/m 2 min 0 min 207 W/m 27,2 km/h (4 Bft)
27.03.2015 07:40 5,4 C 4,4 C 89 % 1014,0 hPa 0,0 l/m 2 min 0 min 143 W/m 29,3 km/h (5 Bft)
27.03.2015 07:42 5,5 C 4,4 C 89 % 1014,0 hPa 0,0 l/m 2 min 0 min 143 W/m 20,9 km/h (4 Bft)
27.03.2015 07:44 5,5 C 4,4 C 89 % 1014,1 hPa 0,0 l/m 0 min 0 min 86 W/m 27,2 km/h (4 Bft)
27.03.2015 07:46 5,6 C 4,4 C 89 % 1014,1 hPa 0,0 l/m 0 min 0 min 49 W/m 20,9 km/h (4 Bft)
27.03.2015 07:48 5,6 C 4,4 C 89 % 1014,2 hPa 0,0 l/m 0 min 0 min 39 W/m 18,8 km/h (3 Bft)
27.03.2015 07:50 5,6 C 4,4 C 89 % 1014,2 hPa 0,0 l/m 0 min 0 min 53 W/m 20,9 km/h (4 Bft)
27.03.2015 07:52 5,6 C 4,4 C 89 % 1014,2 hPa 0,0 l/m 0 min 0 min 52 W/m 20,9 km/h (4 Bft)
27.03.2015 07:54 5,6 C 4,4 C 89 % 1014,2 hPa 0,0 l/m 0 min 0 min 52 W/m 27,2 km/h (4 Bft)
27.03.2015 07:56 5,7 C 4,4 C 89 % 1014,2 hPa 0,0 l/m 0 min 0 min 56 W/m 29,3 km/h (5 Bft)
27.03.2015 07:58 5,7 C 4,4 C 89 % 1014,2 hPa 0,0 l/m 0 min 0 min 65 W/m 23,0 km/h (4 Bft)
27.03.2015 08:00 5,7 C 4,4 C 89 % 1014,3 hPa 0,0 l/m 0 min 0 min 74 W/m 29,3 km/h (5 Bft)
27.03.2015 08:02 5,7 C 4,4 C 89 % 1014,3 hPa 0,0 l/m 0 min 0 min 79 W/m 23,0 km/h (4 Bft)
27.03.2015 08:04 5,7 C 4,4 C 89 % 1014,5 hPa 0,0 l/m 0 min 0 min 61 W/m 20,9 km/h (4 Bft)
27.03.2015 08:06 5,7 C 4,4 C 89 % 1014,4 hPa 0,0 l/m 0 min 0 min 46 W/m 25,1 km/h (4 Bft)
27.03.2015 08:08 5,7 C 4,4 C 89 % 1014,5 hPa 0,0 l/m 0 min 0 min 39 W/m 29,3 km/h (5 Bft)
27.03.2015 08:10 5,7 C 4,4 C 89 % 1014,5 hPa 0,0 l/m 0 min 0 min 35 W/m 25,1 km/h (4 Bft)
27.03.2015 08:12 5,8 C 4,4 C 88 % 1014,6 hPa 0,0 l/m 0 min 0 min 38 W/m 27,2 km/h (4 Bft)
27.03.2015 08:14 5,8 C 4,4 C 88 % 1014,6 hPa 0,0 l/m 0 min 0 min 57 W/m 33,5 km/h (5 Bft)
27.03.2015 08:16 5,8 C 4,4 C 88 % 1014,6 hPa 0,0 l/m 0 min 0 min 91 W/m 20,9 km/h (4 Bft)
27.03.2015 08:18 5,8 C 4,4 C 88 % 1014,6 hPa 0,0 l/m 0 min 0 min 138 W/m 27,2 km/h (4 Bft)
27.03.2015 08:20 5,8 C 5,0 C 88 % 1014,7 hPa 0,0 l/m 0 min 0 min 142 W/m 33,5 km/h (5 Bft)
27.03.2015 08:22 5,8 C 5,0 C 88 % 1014,6 hPa 0,0 l/m 0 min 0 min 140 W/m 27,2 km/h (4 Bft)
27.03.2015 08:24 5,8 C 5,0 C 88 % 1014,6 hPa 0,0 l/m 0 min 0 min 135 W/m 23,0 km/h (4 Bft)
27.03.2015 08:26 5,9 C 5,0 C 88 % 1014,7 hPa 0,0 l/m 0 min 0 min 120 W/m 23,0 km/h (4 Bft)
27.03.2015 08:28 5,9 C 4,4 C 88 % 1014,7 hPa 0,0 l/m 0 min 0 min 125 W/m 27,2 km/h (4 Bft)
27.03.2015 08:30 5,9 C 4,4 C 88 % 1014,7 hPa 0,0 l/m 0 min 0 min 138 W/m 18,8 km/h (3 Bft)
27.03.2015 08:32 5,9 C 4,4 C 88 % 1014,7 hPa 0,0 l/m 0 min 0 min 128 W/m 27,2 km/h (4 Bft)
27.03.2015 08:34 5,9 C 5,0 C 88 % 1014,7 hPa 0,0 l/m 0 min 0 min 96 W/m 23,0 km/h (4 Bft)
27.03.2015 08:36 5,9 C 5,0 C 88 % 1014,7 hPa 0,0 l/m 0 min 0 min 118 W/m 37,7 km/h (5 Bft)
27.03.2015 08:38 5,9 C 5,0 C 88 % 1014,8 hPa 0,0 l/m 0 min 0 min 102 W/m 25,1 km/h (4 Bft)
27.03.2015 08:40 6,0 C 5,0 C 88 % 1014,7 hPa 0,0 l/m 0 min 0 min 117 W/m 25,1 km/h (4 Bft)
27.03.2015 08:42 6,0 C 5,0 C 88 % 1014,8 hPa 0,0 l/m 0 min 0 min 132 W/m 33,5 km/h (5 Bft)
27.03.2015 08:44 6,1 C 5,6 C 88 % 1014,7 hPa 0,0 l/m 0 min 0 min 157 W/m 33,5 km/h (5 Bft)
27.03.2015 08:46 6,1 C 5,6 C 88 % 1014,7 hPa 0,0 l/m 2 min 0 min 195 W/m 31,4 km/h (5 Bft)
27.03.2015 08:48 6,1 C 5,6 C 88 % 1014,7 hPa 0,0 l/m 2 min 0 min 200 W/m 41,8 km/h (6 Bft)
27.03.2015 08:50 6,2 C 5,6 C 87 % 1014,8 hPa 0,0 l/m 2 min 0 min 206 W/m 37,7 km/h (5 Bft)
27.03.2015 08:52 6,2 C 5,6 C 87 % 1014,9 hPa 0,0 l/m 0 min 0 min 146 W/m 29,3 km/h (5 Bft)
27.03.2015 08:54 6,3 C 5,6 C 87 % 1014,8 hPa 0,0 l/m 0 min 0 min 153 W/m 48,1 km/h (6 Bft)
27.03.2015 08:56 6,3 C 5,6 C 87 % 1014,8 hPa 0,0 l/m 2 min 0 min 397 W/m 33,5 km/h (5 Bft)
27.03.2015 08:58 6,4 C 5,6 C 87 % 1014,8 hPa 0,0 l/m 2 min 0 min 393 W/m 31,4 km/h (5 Bft)
27.03.2015 09:00 6,4 C 5,6 C 87 % 1014,8 hPa 0,0 l/m 2 min 0 min 410 W/m 35,6 km/h (5 Bft)
27.03.2015 09:02 6,5 C 5,6 C 86 % 1014,8 hPa 0,0 l/m 2 min 0 min 434 W/m 23,0 km/h (4 Bft)
27.03.2015 09:04 6,6 C 5,6 C 86 % 1014,9 hPa 0,0 l/m 2 min 0 min 438 W/m 41,8 km/h (6 Bft)
27.03.2015 09:06 6,7 C 6,1 C 86 % 1014,9 hPa 0,0 l/m 2 min 0 min 469 W/m 29,3 km/h (5 Bft)
27.03.2015 09:08 6,7 C 6,1 C 86 % 1014,8 hPa 0,0 l/m 2 min 0 min 415 W/m 33,5 km/h (5 Bft)
27.03.2015 09:10 6,7 C 5,6 C 86 % 1014,9 hPa 0,0 l/m 0 min 0 min 152 W/m 35,6 km/h (5 Bft)
27.03.2015 09:12 6,8 C 5,6 C 85 % 1015,0 hPa 0,0 l/m 0 min 0 min 177 W/m 41,8 km/h (6 Bft)
27.03.2015 09:14 6,8 C 6,1 C 85 % 1015,0 hPa 0,0 l/m 0 min 0 min 169 W/m 27,2 km/h (4 Bft)
27.03.2015 09:16 6,8 C 6,1 C 85 % 1015,0 hPa 0,0 l/m 0 min 0 min 206 W/m 43,9 km/h (6 Bft)
27.03.2015 09:18 6,9 C 6,1 C 85 % 1015,0 hPa 0,0 l/m 0 min 0 min 202 W/m 29,3 km/h (5 Bft)
27.03.2015 09:20 6,9 C 6,1 C 85 % 1015,1 hPa 0,0 l/m 0 min 0 min 190 W/m 35,6 km/h (5 Bft)
27.03.2015 09:22 6,9 C 6,1 C 84 % 1015,2 hPa 0,0 l/m 0 min 0 min 125 W/m 31,4 km/h (5 Bft)
27.03.2015 09:24 6,9 C 6,1 C 84 % 1015,2 hPa 0,0 l/m 0 min 0 min 114 W/m 35,6 km/h (5 Bft)
27.03.2015 09:26 6,9 C 6,1 C 84 % 1015,1 hPa 0,0 l/m 0 min 0 min 132 W/m 27,2 km/h (4 Bft)
27.03.2015 09:28 6,9 C 6,1 C 84 % 1015,2 hPa 0,0 l/m 0 min 0 min 169 W/m 31,4 km/h (5 Bft)
27.03.2015 09:30 6,9 C 6,1 C 84 % 1015,2 hPa 0,0 l/m 0 min 0 min 194 W/m 27,2 km/h (4 Bft)
27.03.2015 09:32 7,0 C 6,1 C 84 % 1015,3 hPa 0,0 l/m 2 min 0 min 393 W/m 29,3 km/h (5 Bft)
27.03.2015 09:34 7,0 C 6,1 C 84 % 1015,2 hPa 0,0 l/m 0 min 0 min 164 W/m 37,7 km/h (5 Bft)
27.03.2015 09:36 7,0 C 6,1 C 84 % 1015,4 hPa 0,0 l/m 0 min 0 min 126 W/m 29,3 km/h (5 Bft)
27.03.2015 09:38 7,0 C 6,1 C 84 % 1015,4 hPa 0,0 l/m 0 min 0 min 144 W/m 23,0 km/h (4 Bft)
27.03.2015 09:40 7,0 C 6,7 C 84 % 1015,5 hPa 0,0 l/m 0 min 0 min 163 W/m 23,0 km/h (4 Bft)
27.03.2015 09:42 7,0 C 6,1 C 84 % 1015,5 hPa 0,0 l/m 0 min 0 min 145 W/m 29,3 km/h (5 Bft)
27.03.2015 09:44 7,0 C 6,1 C 84 % 1015,5 hPa 0,0 l/m 0 min 0 min 149 W/m 31,4 km/h (5 Bft)
27.03.2015 09:46 7,0 C 6,7 C 83 % 1015,6 hPa 0,0 l/m 0 min 0 min 138 W/m 16,7 km/h (3 Bft)
27.03.2015 09:48 7,0 C 6,1 C 83 % 1015,6 hPa 0,0 l/m 0 min 0 min 93 W/m 27,2 km/h (4 Bft)
27.03.2015 09:50 7,0 C 6,1 C 84 % 1015,6 hPa 0,0 l/m 0 min 0 min 68 W/m 29,3 km/h (5 Bft)
27.03.2015 09:52 7,0 C 6,1 C 84 % 1015,6 hPa 0,0 l/m 0 min 0 min 46 W/m 23,0 km/h (4 Bft)
27.03.2015 09:54 7,0 C 5,6 C 83 % 1015,7 hPa 0,0 l/m 0 min 0 min 43 W/m 20,9 km/h (4 Bft)
27.03.2015 09:56 6,9 C 5,6 C 83 % 1015,7 hPa 0,0 l/m 0 min 0 min 50 W/m 18,8 km/h (3 Bft)
27.03.2015 09:58 6,9 C 5,6 C 83 % 1015,7 hPa 0,0 l/m 0 min 0 min 57 W/m 29,3 km/h (5 Bft)
27.03.2015 10:00 6,9 C 5,6 C 83 % 1015,8 hPa 0,0 l/m 0 min 0 min 50 W/m 20,9 km/h (4 Bft)
27.03.2015 10:02 6,8 C 5,6 C 83 % 1015,9 hPa 0,0 l/m 0 min 0 min 55 W/m 23,0 km/h (4 Bft)
27.03.2015 10:04 6,8 C 5,6 C 84 % 1015,8 hPa 0,0 l/m 0 min 0 min 58 W/m 35,6 km/h (5 Bft)
27.03.2015 10:06 6,8 C 5,6 C 84 % 1015,8 hPa 0,0 l/m 0 min 0 min 61 W/m 31,4 km/h (5 Bft)
27.03.2015 10:08 6,7 C 5,6 C 83 % 1015,9 hPa 0,0 l/m 0 min 0 min 56 W/m 23,0 km/h (4 Bft)
27.03.2015 10:10 6,7 C 5,6 C 83 % 1015,9 hPa 0,0 l/m 0 min 0 min 59 W/m 31,4 km/h (5 Bft)
27.03.2015 10:12 6,7 C 5,6 C 84 % 1015,9 hPa 0,0 l/m 0 min 0 min 61 W/m 25,1 km/h (4 Bft)
27.03.2015 10:14 6,7 C 5,6 C 84 % 1015,9 hPa 0,0 l/m 0 min 0 min 103 W/m 16,7 km/h (3 Bft)
27.03.2015 10:16 6,7 C 6,1 C 84 % 1015,9 hPa 0,0 l/m 0 min 0 min 143 W/m 23,0 km/h (4 Bft)
27.03.2015 10:18 6,7 C 6,1 C 84 % 1016,0 hPa 0,0 l/m 0 min 0 min 159 W/m 27,2 km/h (4 Bft)
27.03.2015 10:20 6,7 C 6,1 C 84 % 1015,9 hPa 0,0 l/m 0 min 0 min 163 W/m 23,0 km/h (4 Bft)
27.03.2015 10:22 6,8 C 6,7 C 84 % 1015,9 hPa 0,0 l/m 0 min 0 min 159 W/m 20,9 km/h (4 Bft)
27.03.2015 10:24 6,8 C 6,1 C 84 % 1016,0 hPa 0,0 l/m 0 min 0 min 101 W/m 33,5 km/h (5 Bft)
27.03.2015 10:26 6,8 C 6,1 C 84 % 1016,0 hPa 0,0 l/m 0 min 0 min 76 W/m 29,3 km/h (5 Bft)
27.03.2015 10:28 6,8 C 6,1 C 84 % 1016,0 hPa 0,0 l/m 0 min 0 min 66 W/m 27,2 km/h (4 Bft)
27.03.2015 10:30 6,8 C 5,6 C 84 % 1016,1 hPa 0,0 l/m 0 min 0 min 54 W/m 23,0 km/h (4 Bft)
27.03.2015 10:32 6,8 C 5,6 C 84 % 1016,1 hPa 0,0 l/m 0 min 0 min 65 W/m 23,0 km/h (4 Bft)
27.03.2015 10:34 6,8 C 5,6 C 84 % 1016,0 hPa 0,0 l/m 0 min 0 min 63 W/m 23,0 km/h (4 Bft)
27.03.2015 10:36 6,8 C 5,6 C 84 % 1016,0 hPa 0,0 l/m 0 min 0 min 53 W/m 20,9 km/h (4 Bft)
27.03.2015 10:38 6,8 C 5,6 C 84 % 1016,2 hPa 0,0 l/m 0 min 0 min 62 W/m 20,9 km/h (4 Bft)
27.03.2015 10:40 6,8 C 5,6 C 84 % 1016,2 hPa 0,0 l/m 0 min 0 min 71 W/m 31,4 km/h (5 Bft)
27.03.2015 10:42 6,8 C 6,1 C 84 % 1016,2 hPa 0,0 l/m 0 min 0 min 96 W/m 20,9 km/h (4 Bft)
27.03.2015 10:44 6,8 C 6,1 C 84 % 1016,2 hPa 0,0 l/m 0 min 0 min 105 W/m 20,9 km/h (4 Bft)
27.03.2015 10:46 6,8 C 6,1 C 84 % 1016,3 hPa 0,0 l/m 0 min 0 min 114 W/m 33,5 km/h (5 Bft)
27.03.2015 10:48 6,8 C 6,1 C 84 % 1016,3 hPa 0,0 l/m 0 min 0 min 145 W/m 29,3 km/h (5 Bft)
27.03.2015 10:50 6,9 C 6,7 C 84 % 1016,2 hPa 0,0 l/m 0 min 0 min 147 W/m 29,3 km/h (5 Bft)
27.03.2015 10:52 6,9 C 6,1 C 84 % 1016,3 hPa 0,0 l/m 0 min 0 min 116 W/m 27,2 km/h (4 Bft)
27.03.2015 10:54 6,9 C 6,1 C 84 % 1016,4 hPa 0,0 l/m 0 min 0 min 91 W/m 25,1 km/h (4 Bft)
27.03.2015 10:56 6,9 C 6,1 C 84 % 1016,4 hPa 0,0 l/m 0 min 0 min 94 W/m 25,1 km/h (4 Bft)
27.03.2015 10:58 6,9 C 6,1 C 84 % 1016,4 hPa 0,0 l/m 0 min 0 min 111 W/m 23,0 km/h (4 Bft)
27.03.2015 11:00 6,9 C 6,1 C 84 % 1016,5 hPa 0,0 l/m 0 min 0 min 120 W/m 23,0 km/h (4 Bft)
27.03.2015 11:02 7,0 C 6,1 C 84 % 1016,5 hPa 0,0 l/m 0 min 0 min 88 W/m 16,7 km/h (3 Bft)
27.03.2015 11:04 7,0 C 6,7 C 84 % 1016,4 hPa 0,0 l/m 0 min 0 min 116 W/m 23,0 km/h (4 Bft)
27.03.2015 11:06 7,0 C 6,1 C 84 % 1016,5 hPa 0,0 l/m 0 min 0 min 117 W/m 31,4 km/h (5 Bft)
27.03.2015 11:08 7,1 C 6,1 C 84 % 1016,5 hPa 0,0 l/m 0 min 0 min 112 W/m 29,3 km/h (5 Bft)
27.03.2015 11:10 7,1 C 6,7 C 84 % 1016,5 hPa 0,0 l/m 0 min 0 min 121 W/m 27,2 km/h (4 Bft)
27.03.2015 11:12 7,1 C 6,7 C 83 % 1016,5 hPa 0,0 l/m 0 min 0 min 154 W/m 27,2 km/h (4 Bft)
27.03.2015 11:14 7,1 C 6,7 C 83 % 1016,5 hPa 0,0 l/m 0 min 0 min 133 W/m 31,4 km/h (5 Bft)
27.03.2015 11:16 7,1 C 6,7 C 83 % 1016,7 hPa 0,0 l/m 0 min 0 min 95 W/m 29,3 km/h (5 Bft)
27.03.2015 11:18 7,1 C 6,7 C 83 % 1016,7 hPa 0,0 l/m 0 min 0 min 130 W/m 25,1 km/h (4 Bft)
27.03.2015 11:20 7,2 C 7,2 C 83 % 1016,7 hPa 0,0 l/m 0 min 0 min 227 W/m 23,0 km/h (4 Bft)
27.03.2015 11:22 7,2 C 7,2 C 83 % 1016,7 hPa 0,0 l/m 0 min 0 min 277 W/m 37,7 km/h (5 Bft)
27.03.2015 11:24 7,3 C 7,8 C 83 % 1016,8 hPa 0,0 l/m 0 min 0 min 292 W/m 31,4 km/h (5 Bft)
27.03.2015 11:26 7,4 C 7,8 C 83 % 1016,8 hPa 0,0 l/m 0 min 0 min 249 W/m 20,9 km/h (4 Bft)
27.03.2015 11:28 7,5 C 7,2 C 83 % 1016,7 hPa 0,0 l/m 0 min 0 min 179 W/m 29,3 km/h (5 Bft)
27.03.2015 11:30 7,6 C 7,2 C 83 % 1016,8 hPa 0,0 l/m 0 min 0 min 102 W/m 25,1 km/h (4 Bft)
27.03.2015 11:32 7,6 C 7,2 C 82 % 1016,8 hPa 0,0 l/m 0 min 0 min 107 W/m 27,2 km/h (4 Bft)
27.03.2015 11:34 7,6 C 6,7 C 82 % 1016,8 hPa 0,0 l/m 0 min 0 min 112 W/m 23,0 km/h (4 Bft)
27.03.2015 11:36 7,6 C 6,7 C 82 % 1016,9 hPa 0,0 l/m 0 min 0 min 102 W/m 25,1 km/h (4 Bft)
27.03.2015 11:38 7,6 C 6,7 C 82 % 1016,8 hPa 0,0 l/m 0 min 0 min 94 W/m 20,9 km/h (4 Bft)
27.03.2015 11:40 7,6 C 6,7 C 82 % 1016,8 hPa 0,0 l/m 0 min 0 min 108 W/m 23,0 km/h (4 Bft)
27.03.2015 11:42 7,6 C 6,7 C 82 % 1016,8 hPa 0,0 l/m 0 min 0 min 126 W/m 25,1 km/h (4 Bft)
27.03.2015 11:44 7,6 C 6,7 C 82 % 1016,9 hPa 0,0 l/m 0 min 0 min 151 W/m 37,7 km/h (5 Bft)
27.03.2015 11:46 7,6 C 6,7 C 81 % 1016,9 hPa 0,0 l/m 0 min 0 min 127 W/m 23,0 km/h (4 Bft)
27.03.2015 11:48 7,6 C 6,7 C 81 % 1016,8 hPa 0,0 l/m 0 min 0 min 114 W/m 35,6 km/h (5 Bft)
27.03.2015 11:50 7,6 C 6,7 C 81 % 1016,9 hPa 0,0 l/m 0 min 0 min 124 W/m 35,6 km/h (5 Bft)
27.03.2015 11:52 7,6 C 6,7 C 80 % 1016,9 hPa 0,0 l/m 0 min 0 min 123 W/m 39,7 km/h (6 Bft)
27.03.2015 11:54 7,6 C 6,7 C 80 % 1017,0 hPa 0,0 l/m 0 min 0 min 130 W/m 25,1 km/h (4 Bft)
27.03.2015 11:56 7,6 C 6,7 C 80 % 1017,0 hPa 0,0 l/m 0 min 0 min 105 W/m 20,9 km/h (4 Bft)
27.03.2015 11:58 7,6 C 6,7 C 80 % 1017,0 hPa 0,0 l/m 0 min 0 min 100 W/m 23,0 km/h (4 Bft)
27.03.2015 12:00 7,7 C 7,2 C 80 % 1017,1 hPa 0,0 l/m 0 min 0 min 146 W/m 29,3 km/h (5 Bft)
27.03.2015 12:02 7,7 C 7,2 C 80 % 1017,1 hPa 0,0 l/m 0 min 0 min 198 W/m 35,6 km/h (5 Bft)
27.03.2015 12:06 7,7 C 7,2 C 79 % 1017,0 hPa 0,0 l/m 0 min 0 min 177 W/m 29,3 km/h (5 Bft)
27.03.2015 12:08 7,8 C 7,2 C 79 % 1017,2 hPa 0,0 l/m 0 min 0 min 148 W/m 33,5 km/h (5 Bft)
27.03.2015 12:10 7,8 C 7,2 C 78 % 1017,2 hPa 0,0 l/m 0 min 0 min 139 W/m 31,4 km/h (5 Bft)
27.03.2015 12:12 7,9 C 7,2 C 77 % 1017,1 hPa 0,0 l/m 0 min 0 min 135 W/m 25,1 km/h (4 Bft)
27.03.2015 12:14 7,9 C 7,2 C 77 % 1017,2 hPa 0,0 l/m 0 min 0 min 116 W/m 25,1 km/h (4 Bft)
27.03.2015 12:16 7,9 C 7,2 C 77 % 1017,3 hPa 0,0 l/m 0 min 0 min 110 W/m 20,9 km/h (4 Bft)
27.03.2015 12:18 7,9 C 7,2 C 77 % 1017,2 hPa 0,0 l/m 0 min 0 min 102 W/m 46,0 km/h (6 Bft)
27.03.2015 12:20 7,9 C 7,2 C 76 % 1017,3 hPa 0,0 l/m 0 min 0 min 96 W/m 31,4 km/h (5 Bft)
27.03.2015 12:22 7,9 C 7,2 C 76 % 1017,3 hPa 0,0 l/m 0 min 0 min 112 W/m 35,6 km/h (5 Bft)
27.03.2015 12:24 8,0 C 7,2 C 76 % 1017,3 hPa 0,0 l/m 0 min 0 min 138 W/m 20,9 km/h (4 Bft)
27.03.2015 12:26 8,0 C 7,8 C 75 % 1017,3 hPa 0,0 l/m 0 min 0 min 208 W/m 18,8 km/h (3 Bft)
27.03.2015 12:28 8,1 C 7,8 C 76 % 1017,3 hPa 0,0 l/m 0 min 0 min 264 W/m 27,2 km/h (4 Bft)
27.03.2015 12:30 8,1 C 7,8 C 75 % 1017,3 hPa 0,0 l/m 0 min 0 min 231 W/m 33,5 km/h (5 Bft)
27.03.2015 12:32 8,2 C 7,8 C 74 % 1017,3 hPa 0,0 l/m 0 min 0 min 164 W/m 39,7 km/h (6 Bft)
27.03.2015 12:34 8,2 C 7,8 C 73 % 1017,4 hPa 0,0 l/m 0 min 0 min 199 W/m 37,7 km/h (5 Bft)
27.03.2015 12:36 8,3 C 7,8 C 73 % 1017,4 hPa 0,0 l/m 0 min 0 min 241 W/m 33,5 km/h (5 Bft)
27.03.2015 12:38 8,3 C 7,8 C 73 % 1017,4 hPa 0,0 l/m 0 min 0 min 187 W/m 27,2 km/h (4 Bft)
27.03.2015 12:40 8,4 C 7,8 C 73 % 1017,4 hPa 0,0 l/m 0 min 0 min 131 W/m 23,0 km/h (4 Bft)
27.03.2015 12:42 8,4 C 7,8 C 73 % 1017,4 hPa 0,0 l/m 0 min 0 min 119 W/m 29,3 km/h (5 Bft)
27.03.2015 12:44 8,4 C 7,8 C 72 % 1017,4 hPa 0,0 l/m 0 min 0 min 164 W/m 33,5 km/h (5 Bft)
27.03.2015 12:46 8,5 C 7,8 C 73 % 1017,4 hPa 0,0 l/m 0 min 0 min 182 W/m 29,3 km/h (5 Bft)
27.03.2015 12:48 8,6 C 7,8 C 73 % 1017,5 hPa 0,0 l/m 0 min 0 min 187 W/m 23,0 km/h (4 Bft)
27.03.2015 12:50 8,6 C 8,9 C 72 % 1017,5 hPa 0,0 l/m 0 min 0 min 193 W/m 25,1 km/h (4 Bft)
27.03.2015 12:52 8,7 C 8,9 C 72 % 1017,5 hPa 0,0 l/m 0 min 0 min 256 W/m 33,5 km/h (5 Bft)
27.03.2015 12:54 8,8 C 8,9 C 72 % 1017,5 hPa 0,0 l/m 0 min 0 min 267 W/m 23,0 km/h (4 Bft)
27.03.2015 12:56 8,8 C 8,9 C 72 % 1017,5 hPa 0,0 l/m 0 min 0 min 237 W/m 20,9 km/h (4 Bft)
27.03.2015 12:58 8,9 C 8,9 C 71 % 1017,4 hPa 0,0 l/m 0 min 0 min 199 W/m 23,0 km/h (4 Bft)
27.03.2015 13:00 8,9 C 8,9 C 71 % 1017,5 hPa 0,0 l/m 0 min 0 min 205 W/m 16,7 km/h (3 Bft)
27.03.2015 13:02 9,0 C 8,9 C 71 % 1017,5 hPa 0,0 l/m 0 min 0 min 290 W/m 25,1 km/h (4 Bft)
27.03.2015 13:04 9,0 C 8,9 C 71 % 1017,5 hPa 0,0 l/m 0 min 0 min 316 W/m 14,6 km/h (3 Bft)
27.03.2015 13:06 9,1 C 9,4 C 72 % 1017,5 hPa 0,0 l/m 0 min 0 min 291 W/m 18,8 km/h (3 Bft)
27.03.2015 13:08 9,1 C 9,4 C 71 % 1017,5 hPa 0,0 l/m 0 min 0 min 253 W/m 27,2 km/h (4 Bft)
27.03.2015 13:10 9,2 C 8,9 C 71 % 1017,5 hPa 0,0 l/m 0 min 0 min 262 W/m 29,3 km/h (5 Bft)
27.03.2015 13:12 9,2 C 9,4 C 70 % 1017,5 hPa 0,0 l/m 0 min 0 min 314 W/m 25,1 km/h (4 Bft)
27.03.2015 13:14 9,3 C 10,0 C 71 % 1017,5 hPa 0,0 l/m 2 min 0 min 357 W/m 29,3 km/h (5 Bft)
27.03.2015 13:16 9,4 C 10,0 C 70 % 1017,5 hPa 0,0 l/m 2 min 0 min 357 W/m 31,4 km/h (5 Bft)
27.03.2015 13:18 9,5 C 10,6 C 70 % 1017,5 hPa 0,0 l/m 2 min 0 min 357 W/m 33,5 km/h (5 Bft)
27.03.2015 13:20 9,6 C 10,0 C 70 % 1017,5 hPa 0,0 l/m 2 min 0 min 340 W/m 31,4 km/h (5 Bft)
27.03.2015 13:22 9,7 C 10,0 C 69 % 1017,4 hPa 0,0 l/m 0 min 0 min 241 W/m 25,1 km/h (4 Bft)
27.03.2015 13:24 9,8 C 9,4 C 68 % 1017,5 hPa 0,0 l/m 0 min 0 min 238 W/m 43,9 km/h (6 Bft)
27.03.2015 13:26 9,8 C 9,4 C 67 % 1017,5 hPa 0,0 l/m 0 min 0 min 243 W/m 35,6 km/h (5 Bft)
27.03.2015 13:28 9,8 C 9,4 C 67 % 1017,4 hPa 0,0 l/m 0 min 0 min 242 W/m 31,4 km/h (5 Bft)
27.03.2015 13:30 9,7 C 8,9 C 67 % 1017,5 hPa 0,0 l/m 0 min 0 min 241 W/m 31,4 km/h (5 Bft)
27.03.2015 13:32 9,7 C 8,9 C 67 % 1017,4 hPa 0,0 l/m 0 min 0 min 259 W/m 25,1 km/h (4 Bft)
27.03.2015 13:34 9,7 C 9,4 C 68 % 1017,4 hPa 0,0 l/m 0 min 0 min 252 W/m 18,8 km/h (3 Bft)
27.03.2015 13:36 9,7 C 9,4 C 68 % 1017,5 hPa 0,0 l/m 0 min 0 min 265 W/m 29,3 km/h (5 Bft)
27.03.2015 13:38 9,7 C 9,4 C 68 % 1017,5 hPa 0,0 l/m 0 min 0 min 284 W/m 29,3 km/h (5 Bft)
27.03.2015 13:40 9,8 C 10,0 C 68 % 1017,6 hPa 0,0 l/m 2 min 0 min 331 W/m 25,1 km/h (4 Bft)
27.03.2015 13:42 9,9 C 10,6 C 68 % 1017,5 hPa 0,0 l/m 2 min 0 min 847 W/m 37,7 km/h (5 Bft)
27.03.2015 13:44 10,1 C 10,6 C 67 % 1017,5 hPa 0,0 l/m 2 min 0 min 732 W/m 39,7 km/h (6 Bft)
27.03.2015 13:46 10,1 C 10,6 C 66 % 1017,5 hPa 0,0 l/m 2 min 0 min 320 W/m 39,7 km/h (6 Bft)
27.03.2015 13:48 10,2 C 10,0 C 66 % 1017,5 hPa 0,0 l/m 2 min 0 min 352 W/m 37,7 km/h (5 Bft)
27.03.2015 13:50 10,2 C 9,4 C 66 % 1017,5 hPa 0,0 l/m 0 min 0 min 207 W/m 27,2 km/h (4 Bft)
27.03.2015 13:52 10,2 C 9,4 C 67 % 1017,5 hPa 0,0 l/m 0 min 0 min 192 W/m 31,4 km/h (5 Bft)
27.03.2015 13:54 10,2 C 9,4 C 66 % 1017,5 hPa 0,0 l/m 0 min 0 min 189 W/m 39,7 km/h (6 Bft)
27.03.2015 13:56 10,1 C 8,9 C 65 % 1017,6 hPa 0,0 l/m 0 min 0 min 177 W/m 35,6 km/h (5 Bft)
27.03.2015 13:58 10,1 C 8,9 C 64 % 1017,6 hPa 0,0 l/m 0 min 0 min 167 W/m 41,8 km/h (6 Bft)
27.03.2015 14:00 10,0 C 8,9 C 64 % 1017,6 hPa 0,0 l/m 0 min 0 min 180 W/m 33,5 km/h (5 Bft)
27.03.2015 14:02 9,9 C 8,9 C 64 % 1017,6 hPa 0,0 l/m 0 min 0 min 158 W/m 35,6 km/h (5 Bft)
27.03.2015 14:04 9,9 C 8,9 C 64 % 1017,6 hPa 0,0 l/m 0 min 0 min 165 W/m 31,4 km/h (5 Bft)
27.03.2015 14:06 9,8 C 8,9 C 65 % 1017,6 hPa 0,0 l/m 0 min 0 min 224 W/m 23,0 km/h (4 Bft)
27.03.2015 14:08 9,8 C 9,4 C 65 % 1017,6 hPa 0,0 l/m 0 min 0 min 243 W/m 29,3 km/h (5 Bft)
27.03.2015 14:10 9,8 C 9,4 C 66 % 1017,7 hPa 0,0 l/m 0 min 0 min 203 W/m 18,8 km/h (3 Bft)
27.03.2015 14:12 9,9 C 10,0 C 67 % 1017,7 hPa 0,0 l/m 0 min 0 min 232 W/m 25,1 km/h (4 Bft)
27.03.2015 14:14 9,9 C 9,4 C 67 % 1017,8 hPa 0,0 l/m 0 min 0 min 198 W/m 18,8 km/h (3 Bft)
27.03.2015 14:16 9,9 C 9,4 C 67 % 1017,9 hPa 0,0 l/m 0 min 0 min 186 W/m 31,4 km/h (5 Bft)
27.03.2015 14:18 9,9 C 9,4 C 66 % 1017,9 hPa 0,0 l/m 0 min 0 min 221 W/m 50,2 km/h (7 Bft)
27.03.2015 14:20 9,9 C 9,4 C 65 % 1017,9 hPa 0,0 l/m 0 min 0 min 208 W/m 31,4 km/h (5 Bft)
27.03.2015 14:22 9,9 C 10,6 C 65 % 1018,1 hPa 0,0 l/m 0 min 0 min 195 W/m 31,4 km/h (5 Bft)
27.03.2015 14:24 9,9 C 10,0 C 64 % 1018,1 hPa 0,0 l/m 0 min 0 min 201 W/m 39,7 km/h (6 Bft)
27.03.2015 14:26 10,0 C 10,0 C 64 % 1018,1 hPa 0,0 l/m 0 min 0 min 233 W/m 29,3 km/h (5 Bft)
27.03.2015 14:28 10,0 C 10,0 C 64 % 1018,1 hPa 0,0 l/m 0 min 0 min 240 W/m 31,4 km/h (5 Bft)
27.03.2015 14:30 10,0 C 10,6 C 64 % 1018,1 hPa 0,0 l/m 2 min 0 min 303 W/m 27,2 km/h (4 Bft)
27.03.2015 14:32 10,1 C 11,7 C 65 % 1018,2 hPa 0,0 l/m 2 min 0 min 359 W/m 33,5 km/h (5 Bft)
27.03.2015 14:34 10,2 C 12,2 C 65 % 1018,1 hPa 0,0 l/m 2 min 0 min 333 W/m 29,3 km/h (5 Bft)
27.03.2015 14:36 10,3 C 12,2 C 65 % 1018,2 hPa 0,0 l/m 2 min 0 min 321 W/m 31,4 km/h (5 Bft)
27.03.2015 14:38 10,4 C 12,2 C 65 % 1018,2 hPa 0,0 l/m 2 min 0 min 309 W/m 23,0 km/h (4 Bft)
27.03.2015 14:40 10,4 C 10,6 C 65 % 1018,3 hPa 0,0 l/m 0 min 0 min 223 W/m 33,5 km/h (5 Bft)
27.03.2015 14:42 10,4 C 10,0 C 64 % 1018,2 hPa 0,0 l/m 0 min 0 min 161 W/m 35,6 km/h (5 Bft)
27.03.2015 14:44 10,4 C 9,4 C 64 % 1018,3 hPa 0,0 l/m 0 min 0 min 122 W/m 20,9 km/h (4 Bft)
27.03.2015 14:46 10,4 C 9,4 C 64 % 1018,4 hPa 0,0 l/m 0 min 0 min 108 W/m 29,3 km/h (5 Bft)
27.03.2015 14:48 10,4 C 8,9 C 64 % 1018,4 hPa 0,0 l/m 0 min 0 min 128 W/m 25,1 km/h (4 Bft)
27.03.2015 14:50 10,3 C 9,4 C 65 % 1018,4 hPa 0,0 l/m 0 min 0 min 148 W/m 20,9 km/h (4 Bft)
27.03.2015 14:52 10,3 C 8,9 C 65 % 1018,4 hPa 0,0 l/m 0 min 0 min 147 W/m 23,0 km/h (4 Bft)
27.03.2015 14:54 10,3 C 8,9 C 65 % 1018,5 hPa 0,0 l/m 0 min 0 min 112 W/m 41,8 km/h (6 Bft)
27.03.2015 14:56 10,2 C 8,9 C 64 % 1018,6 hPa 0,0 l/m 0 min 0 min 116 W/m 27,2 km/h (4 Bft)
27.03.2015 14:58 10,1 C 8,9 C 64 % 1018,5 hPa 0,0 l/m 0 min 0 min 168 W/m 31,4 km/h (5 Bft)
27.03.2015 15:00 10,1 C 9,4 C 64 % 1018,6 hPa 0,0 l/m 0 min 0 min 224 W/m 35,6 km/h (5 Bft)
27.03.2015 15:02 10,0 C 9,4 C 65 % 1018,6 hPa 0,0 l/m 0 min 0 min 205 W/m 29,3 km/h (5 Bft)
27.03.2015 15:04 10,0 C 9,4 C 66 % 1018,5 hPa 0,0 l/m 0 min 0 min 168 W/m 27,2 km/h (4 Bft)
27.03.2015 15:06 10,0 C 9,4 C 66 % 1018,6 hPa 0,0 l/m 0 min 0 min 154 W/m 27,2 km/h (4 Bft)
27.03.2015 15:08 10,0 C 9,4 C 66 % 1018,6 hPa 0,0 l/m 0 min 0 min 168 W/m 12,6 km/h (3 Bft)
27.03.2015 15:10 10,0 C 10,0 C 66 % 1018,5 hPa 0,0 l/m 0 min 0 min 235 W/m 29,3 km/h (5 Bft)
27.03.2015 15:12 10,0 C 10,0 C 66 % 1018,6 hPa 0,0 l/m 0 min 0 min 245 W/m 29,3 km/h (5 Bft)
27.03.2015 15:14 10,1 C 10,0 C 65 % 1018,6 hPa 0,0 l/m 0 min 0 min 216 W/m 29,3 km/h (5 Bft)
27.03.2015 15:16 10,1 C 9,4 C 64 % 1018,6 hPa 0,0 l/m 0 min 0 min 164 W/m 27,2 km/h (4 Bft)
27.03.2015 15:18 10,1 C 9,4 C 64 % 1018,6 hPa 0,0 l/m 0 min 0 min 138 W/m 39,7 km/h (6 Bft)
27.03.2015 15:20 10,1 C 8,9 C 64 % 1018,7 hPa 0,0 l/m 0 min 0 min 123 W/m 29,3 km/h (5 Bft)
27.03.2015 15:22 10,0 C 8,9 C 63 % 1018,7 hPa 0,0 l/m 0 min 0 min 105 W/m 31,4 km/h (5 Bft)
27.03.2015 15:24 10,0 C 8,9 C 63 % 1018,6 hPa 0,0 l/m 0 min 0 min 100 W/m 31,4 km/h (5 Bft)
27.03.2015 15:26 10,0 C 8,9 C 63 % 1018,6 hPa 0,0 l/m 0 min 0 min 117 W/m 27,2 km/h (4 Bft)
27.03.2015 15:28 9,9 C 8,9 C 63 % 1018,7 hPa 0,0 l/m 0 min 0 min 131 W/m 18,8 km/h (3 Bft)
27.03.2015 15:30 9,9 C 8,9 C 64 % 1018,7 hPa 0,0 l/m 0 min 0 min 135 W/m 20,9 km/h (4 Bft)
27.03.2015 15:32 9,9 C 8,9 C 65 % 1018,7 hPa 0,0 l/m 0 min 0 min 131 W/m 18,8 km/h (3 Bft)
27.03.2015 15:34 9,9 C 8,9 C 65 % 1018,7 hPa 0,0 l/m 0 min 0 min 132 W/m 18,8 km/h (3 Bft)
27.03.2015 15:36 9,9 C 8,9 C 65 % 1018,7 hPa 0,0 l/m 0 min 0 min 153 W/m 16,7 km/h (3 Bft)
27.03.2015 15:38 9,8 C 8,9 C 65 % 1018,6 hPa 0,0 l/m 0 min 0 min 169 W/m 25,1 km/h (4 Bft)
27.03.2015 15:40 9,8 C 8,9 C 65 % 1018,6 hPa 0,0 l/m 0 min 0 min 160 W/m 25,1 km/h (4 Bft)
27.03.2015 15:42 9,8 C 8,9 C 66 % 1018,8 hPa 0,0 l/m 0 min 0 min 140 W/m 35,6 km/h (5 Bft)
27.03.2015 15:44 9,7 C 8,9 C 66 % 1018,7 hPa 0,0 l/m 0 min 0 min 148 W/m 27,2 km/h (4 Bft)
27.03.2015 15:46 9,7 C 8,9 C 66 % 1018,8 hPa 0,0 l/m 0 min 0 min 148 W/m 25,1 km/h (4 Bft)
27.03.2015 15:48 9,7 C 8,9 C 66 % 1018,8 hPa 0,0 l/m 0 min 0 min 156 W/m 20,9 km/h (4 Bft)
27.03.2015 15:50 9,8 C 9,4 C 67 % 1018,8 hPa 0,0 l/m 0 min 0 min 189 W/m 33,5 km/h (5 Bft)
27.03.2015 15:52 9,8 C 9,4 C 66 % 1018,9 hPa 0,0 l/m 0 min 0 min 203 W/m 29,3 km/h (5 Bft)
27.03.2015 15:54 9,8 C 9,4 C 66 % 1019,0 hPa 0,0 l/m 2 min 0 min 235 W/m 31,4 km/h (5 Bft)
27.03.2015 15:56 9,8 C 9,4 C 66 % 1019,0 hPa 0,0 l/m 2 min 0 min 233 W/m 27,2 km/h (4 Bft)
27.03.2015 15:58 9,9 C 10,0 C 66 % 1019,1 hPa 0,0 l/m 2 min 0 min 219 W/m 27,2 km/h (4 Bft)
27.03.2015 16:00 9,9 C 9,4 C 66 % 1018,9 hPa 0,0 l/m 0 min 0 min 186 W/m 23,0 km/h (4 Bft)
27.03.2015 16:02 9,9 C 9,4 C 66 % 1019,1 hPa 0,0 l/m 0 min 0 min 173 W/m 23,0 km/h (4 Bft)
27.03.2015 16:04 9,9 C 9,4 C 66 % 1019,1 hPa 0,0 l/m 0 min 0 min 156 W/m 23,0 km/h (4 Bft)
27.03.2015 16:06 9,9 C 9,4 C 66 % 1019,2 hPa 0,0 l/m 0 min 0 min 136 W/m 27,2 km/h (4 Bft)
27.03.2015 16:08 9,9 C 8,9 C 66 % 1019,3 hPa 0,0 l/m 0 min 0 min 123 W/m 25,1 km/h (4 Bft)
27.03.2015 16:10 9,9 C 8,9 C 66 % 1019,3 hPa 0,0 l/m 0 min 0 min 127 W/m 27,2 km/h (4 Bft)
27.03.2015 16:12 9,9 C 8,9 C 66 % 1019,3 hPa 0,0 l/m 0 min 0 min 158 W/m 18,8 km/h (3 Bft)
27.03.2015 16:14 9,9 C 9,4 C 67 % 1019,3 hPa 0,0 l/m 0 min 0 min 174 W/m 20,9 km/h (4 Bft)
27.03.2015 16:16 9,9 C 9,4 C 67 % 1019,3 hPa 0,0 l/m 0 min 0 min 155 W/m 27,2 km/h (4 Bft)
27.03.2015 16:18 9,8 C 8,9 C 66 % 1019,4 hPa 0,0 l/m 0 min 0 min 129 W/m 27,2 km/h (4 Bft)
27.03.2015 16:20 9,8 C 8,9 C 65 % 1019,3 hPa 0,0 l/m 0 min 0 min 117 W/m 33,5 km/h (5 Bft)
27.03.2015 16:22 9,8 C 8,9 C 65 % 1019,4 hPa 0,0 l/m 0 min 0 min 111 W/m 35,6 km/h (5 Bft)
27.03.2015 16:24 9,7 C 8,9 C 65 % 1019,4 hPa 0,0 l/m 0 min 0 min 113 W/m 20,9 km/h (4 Bft)
27.03.2015 16:26 9,7 C 8,9 C 66 % 1019,4 hPa 0,0 l/m 0 min 0 min 171 W/m 20,9 km/h (4 Bft)
27.03.2015 16:28 9,7 C 8,9 C 66 % 1019,5 hPa 0,0 l/m 0 min 0 min 137 W/m 31,4 km/h (5 Bft)
27.03.2015 16:30 9,8 C 8,9 C 66 % 1019,5 hPa 0,0 l/m 0 min 0 min 123 W/m 23,0 km/h (4 Bft)
27.03.2015 16:32 9,7 C 8,9 C 66 % 1019,5 hPa 0,0 l/m 0 min 0 min 115 W/m 27,2 km/h (4 Bft)
27.03.2015 16:34 9,7 C 8,9 C 66 % 1019,5 hPa 0,0 l/m 0 min 0 min 107 W/m 20,9 km/h (4 Bft)
27.03.2015 16:36 9,7 C 8,3 C 66 % 1019,6 hPa 0,0 l/m 0 min 0 min 99 W/m 23,0 km/h (4 Bft)
27.03.2015 16:38 9,7 C 8,3 C 66 % 1019,5 hPa 0,0 l/m 0 min 0 min 85 W/m 25,1 km/h (4 Bft)
27.03.2015 16:40 9,7 C 8,3 C 66 % 1019,6 hPa 0,0 l/m 0 min 0 min 70 W/m 18,8 km/h (3 Bft)
27.03.2015 16:42 9,7 C 8,3 C 67 % 1019,7 hPa 0,0 l/m 0 min 0 min 56 W/m 20,9 km/h (4 Bft)
27.03.2015 16:44 9,6 C 7,8 C 66 % 1019,7 hPa 0,0 l/m 0 min 0 min 50 W/m 27,2 km/h (4 Bft)
27.03.2015 16:46 9,6 C 7,8 C 66 % 1019,7 hPa 0,0 l/m 0 min 0 min 47 W/m 23,0 km/h (4 Bft)
27.03.2015 16:48 9,4 C 7,8 C 66 % 1019,8 hPa 0,0 l/m 0 min 0 min 46 W/m 29,3 km/h (5 Bft)
27.03.2015 16:50 9,4 C 7,8 C 66 % 1019,8 hPa 0,0 l/m 0 min 0 min 46 W/m 35,6 km/h (5 Bft)
27.03.2015 16:52 9,3 C 7,8 C 66 % 1019,8 hPa 0,0 l/m 0 min 0 min 47 W/m 23,0 km/h (4 Bft)
27.03.2015 16:54 9,2 C 7,8 C 66 % 1019,8 hPa 0,0 l/m 0 min 0 min 49 W/m 31,4 km/h (5 Bft)
27.03.2015 16:56 9,2 C 7,8 C 66 % 1019,9 hPa 0,0 l/m 0 min 0 min 47 W/m 29,3 km/h (5 Bft)
27.03.2015 16:58 9,2 C 7,8 C 67 % 1019,8 hPa 0,0 l/m 0 min 0 min 51 W/m 25,1 km/h (4 Bft)
27.03.2015 17:00 9,1 C 7,8 C 67 % 1019,8 hPa 0,0 l/m 0 min 0 min 56 W/m 29,3 km/h (5 Bft)
27.03.2015 17:02 9,1 C 7,8 C 67 % 1019,8 hPa 0,0 l/m 0 min 0 min 62 W/m 20,9 km/h (4 Bft)
27.03.2015 17:04 9,1 C 7,8 C 67 % 1019,8 hPa 0,0 l/m 0 min 0 min 65 W/m 23,0 km/h (4 Bft)
27.03.2015 17:06 9,0 C 7,8 C 67 % 1019,9 hPa 0,0 l/m 0 min 0 min 63 W/m 27,2 km/h (4 Bft)
27.03.2015 17:08 9,0 C 7,8 C 67 % 1019,9 hPa 0,0 l/m 0 min 0 min 62 W/m 23,0 km/h (4 Bft)
27.03.2015 17:10 8,9 C 7,8 C 68 % 1019,9 hPa 0,0 l/m 0 min 0 min 64 W/m 20,9 km/h (4 Bft)
27.03.2015 17:12 8,9 C 7,8 C 68 % 1019,9 hPa 0,0 l/m 0 min 0 min 68 W/m 23,0 km/h (4 Bft)
27.03.2015 17:14 8,9 C 7,8 C 68 % 1019,9 hPa 0,0 l/m 0 min 0 min 71 W/m 16,7 km/h (3 Bft)
27.03.2015 17:16 8,9 C 7,8 C 68 % 1019,9 hPa 0,0 l/m 0 min 0 min 66 W/m 18,8 km/h (3 Bft)
27.03.2015 17:18 8,9 C 7,8 C 68 % 1019,9 hPa 0,0 l/m 0 min 0 min 72 W/m 18,8 km/h (3 Bft)
27.03.2015 17:20 8,9 C 7,8 C 68 % 1019,9 hPa 0,0 l/m 0 min 0 min 97 W/m 25,1 km/h (4 Bft)
27.03.2015 17:22 8,9 C 7,8 C 68 % 1019,9 hPa 0,0 l/m 2 min 0 min 137 W/m 25,1 km/h (4 Bft)
27.03.2015 17:24 9,0 C 7,8 C 68 % 1019,8 hPa 0,0 l/m 0 min 0 min 62 W/m 18,8 km/h (3 Bft)
27.03.2015 17:26 8,9 C 7,8 C 68 % 1019,9 hPa 0,0 l/m 0 min 0 min 76 W/m 25,1 km/h (4 Bft)
27.03.2015 17:28 9,0 C 7,8 C 68 % 1019,9 hPa 0,0 l/m 0 min 0 min 89 W/m 27,2 km/h (4 Bft)
27.03.2015 17:30 9,0 C 7,8 C 68 % 1020,0 hPa 0,0 l/m 0 min 0 min 85 W/m 23,0 km/h (4 Bft)
27.03.2015 17:32 8,9 C 7,8 C 68 % 1020,1 hPa 0,0 l/m 0 min 0 min 73 W/m 25,1 km/h (4 Bft)
27.03.2015 17:34 8,9 C 7,8 C 68 % 1020,0 hPa 0,0 l/m 0 min 0 min 67 W/m 16,7 km/h (3 Bft)
27.03.2015 17:36 8,9 C 7,8 C 67 % 1020,0 hPa 0,0 l/m 0 min 0 min 65 W/m 27,2 km/h (4 Bft)
27.03.2015 17:38 8,9 C 7,8 C 67 % 1020,1 hPa 0,0 l/m 0 min 0 min 66 W/m 25,1 km/h (4 Bft)
27.03.2015 17:40 8,9 C 7,8 C 67 % 1020,0 hPa 0,0 l/m 0 min 0 min 81 W/m 29,3 km/h (5 Bft)
27.03.2015 17:42 8,9 C 7,8 C 67 % 1020,1 hPa 0,0 l/m 0 min 0 min 60 W/m 20,9 km/h (4 Bft)
27.03.2015 17:44 8,9 C 7,8 C 67 % 1020,1 hPa 0,0 l/m 0 min 0 min 49 W/m 16,7 km/h (3 Bft)
27.03.2015 17:46 8,9 C 7,8 C 67 % 1020,1 hPa 0,0 l/m 0 min 0 min 46 W/m 18,8 km/h (3 Bft)
27.03.2015 17:48 8,9 C 7,2 C 68 % 1020,1 hPa 0,0 l/m 0 min 0 min 46 W/m 14,6 km/h (3 Bft)
27.03.2015 17:50 8,9 C 7,8 C 68 % 1020,2 hPa 0,0 l/m 0 min 0 min 47 W/m 20,9 km/h (4 Bft)
27.03.2015 17:52 8,9 C 7,2 C 68 % 1020,3 hPa 0,0 l/m 0 min 0 min 50 W/m 27,2 km/h (4 Bft)
27.03.2015 17:54 8,9 C 7,8 C 68 % 1020,3 hPa 0,0 l/m 0 min 0 min 55 W/m 20,9 km/h (4 Bft)
27.03.2015 17:56 8,9 C 7,8 C 68 % 1020,3 hPa 0,0 l/m 0 min 0 min 56 W/m 16,7 km/h (3 Bft)
27.03.2015 17:58 8,8 C 7,2 C 68 % 1020,3 hPa 0,0 l/m 0 min 0 min 53 W/m 23,0 km/h (4 Bft)
27.03.2015 18:00 8,8 C 7,2 C 68 % 1020,3 hPa 0,0 l/m 0 min 0 min 53 W/m 27,2 km/h (4 Bft)
27.03.2015 18:03 8,8 C 7,2 C 68 % 1020,3 hPa 0,0 l/m 0 min 0 min 48 W/m 16,7 km/h (3 Bft)
27.03.2015 18:04 8,8 C 7,2 C 68 % 1020,3 hPa 0,0 l/m 0 min 0 min 44 W/m 16,7 km/h (3 Bft)
27.03.2015 18:06 8,8 C 7,2 C 68 % 1020,3 hPa 0,0 l/m 0 min 0 min 40 W/m 10,5 km/h (2 Bft)
27.03.2015 18:08 8,8 C 7,2 C 68 % 1020,3 hPa 0,0 l/m 0 min 0 min 40 W/m 25,1 km/h (4 Bft)
27.03.2015 18:10 8,8 C 7,2 C 69 % 1020,3 hPa 0,0 l/m 0 min 0 min 40 W/m 12,6 km/h (3 Bft)
27.03.2015 18:12 8,8 C 7,2 C 69 % 1020,4 hPa 0,0 l/m 0 min 0 min 34 W/m 14,6 km/h (3 Bft)
27.03.2015 18:14 8,7 C 7,2 C 69 % 1020,3 hPa 0,0 l/m 0 min 0 min 32 W/m 8,4 km/h (2 Bft)
27.03.2015 18:16 8,7 C 7,2 C 69 % 1020,4 hPa 0,0 l/m 0 min 0 min 33 W/m 14,6 km/h (3 Bft)
27.03.2015 18:18 8,7 C 7,2 C 69 % 1020,4 hPa 0,0 l/m 0 min 0 min 33 W/m 16,7 km/h (3 Bft)
27.03.2015 18:20 8,7 C 7,2 C 69 % 1020,5 hPa 0,0 l/m 0 min 0 min 36 W/m 12,6 km/h (3 Bft)
27.03.2015 18:22 8,7 C 7,2 C 69 % 1020,5 hPa 0,0 l/m 0 min 0 min 36 W/m 8,4 km/h (2 Bft)
27.03.2015 18:24 8,7 C 7,2 C 69 % 1020,5 hPa 0,0 l/m 0 min 0 min 31 W/m 10,5 km/h (2 Bft)
27.03.2015 18:26 8,7 C 7,2 C 70 % 1020,6 hPa 0,0 l/m 0 min 0 min 30 W/m 14,6 km/h (3 Bft)
27.03.2015 18:28 8,7 C 7,2 C 70 % 1020,6 hPa 0,0 l/m 0 min 0 min 28 W/m 14,6 km/h (3 Bft)
27.03.2015 18:30 8,7 C 7,2 C 70 % 1020,6 hPa 0,0 l/m 0 min 0 min 27 W/m 10,5 km/h (2 Bft)
27.03.2015 18:32 8,7 C 7,2 C 70 % 1020,6 hPa 0,0 l/m 0 min 0 min 24 W/m 10,5 km/h (2 Bft)
27.03.2015 18:34 8,7 C 7,2 C 70 % 1020,7 hPa 0,0 l/m 0 min 0 min 21 W/m 8,4 km/h (2 Bft)
27.03.2015 18:36 8,7 C 6,7 C 70 % 1020,8 hPa 0,0 l/m 0 min 0 min 18 W/m 18,8 km/h (3 Bft)
27.03.2015 18:38 8,7 C 6,7 C 71 % 1020,8 hPa 0,0 l/m 0 min 0 min 18 W/m 14,6 km/h (3 Bft)
27.03.2015 18:40 8,6 C 6,7 C 71 % 1020,8 hPa 0,0 l/m 0 min 0 min 12 W/m 16,7 km/h (3 Bft)
27.03.2015 18:42 8,6 C 6,7 C 71 % 1020,8 hPa 0,0 l/m 0 min 0 min 11 W/m 14,6 km/h (3 Bft)
27.03.2015 18:44 8,6 C 6,7 C 71 % 1020,9 hPa 0,0 l/m 0 min 0 min 10 W/m 14,6 km/h (3 Bft)
27.03.2015 18:46 8,6 C 6,7 C 71 % 1020,9 hPa 0,0 l/m 2 min 0 min 11 W/m 12,6 km/h (3 Bft)
27.03.2015 18:48 8,5 C 6,7 C 71 % 1020,9 hPa 0,0 l/m 0 min 0 min 11 W/m 12,6 km/h (3 Bft)
27.03.2015 18:50 8,5 C 6,7 C 71 % 1020,9 hPa 0,0 l/m 0 min 0 min 11 W/m 10,5 km/h (2 Bft)
27.03.2015 18:52 8,5 C 6,1 C 71 % 1021,0 hPa 0,0 l/m 0 min 0 min 11 W/m 12,6 km/h (3 Bft)
27.03.2015 18:54 8,4 C 6,1 C 71 % 1021,0 hPa 0,0 l/m 0 min 0 min 10 W/m 18,8 km/h (3 Bft)
27.03.2015 18:56 8,4 C 6,1 C 71 % 1021,0 hPa 0,0 l/m 0 min 0 min 9 W/m 8,4 km/h (2 Bft)
27.03.2015 18:58 8,4 C 6,1 C 71 % 1021,1 hPa 0,0 l/m 0 min 0 min 7 W/m 12,6 km/h (3 Bft)
27.03.2015 19:00 8,3 C 6,1 C 71 % 1021,1 hPa 0,0 l/m 0 min 0 min 7 W/m 12,6 km/h (3 Bft)
27.03.2015 19:02 8,3 C 6,1 C 71 % 1021,2 hPa 0,0 l/m 0 min 0 min 5 W/m 10,5 km/h (2 Bft)
27.03.2015 19:04 8,3 C 6,1 C 71 % 1021,2 hPa 0,0 l/m 0 min 0 min 5 W/m 8,4 km/h (2 Bft)
27.03.2015 19:06 8,2 C 6,1 C 71 % 1021,2 hPa 0,0 l/m 0 min 0 min 2 W/m 16,7 km/h (3 Bft)
27.03.2015 19:08 8,2 C 6,1 C 72 % 1021,3 hPa 0,0 l/m 0 min 0 min 0 W/m 8,4 km/h (2 Bft)
27.03.2015 19:10 8,2 C 5,6 C 72 % 1021,3 hPa 0,0 l/m 0 min 0 min 0 W/m 8,4 km/h (2 Bft)
27.03.2015 19:12 8,1 C 5,6 C 72 % 1021,4 hPa 0,0 l/m 0 min 0 min 0 W/m 12,6 km/h (3 Bft)
27.03.2015 19:14 8,1 C 5,6 C 72 % 1021,4 hPa 0,0 l/m 0 min 0 min 0 W/m 8,4 km/h (2 Bft)
27.03.2015 19:16 8,1 C 5,0 C 72 % 1021,5 hPa 0,0 l/m 0 min 0 min 0 W/m 8,4 km/h (2 Bft)
27.03.2015 19:18 8,0 C 5,0 C 72 % 1021,5 hPa 0,0 l/m 0 min 0 min 0 W/m 8,4 km/h (2 Bft)
27.03.2015 19:20 8,0 C 5,0 C 72 % 1021,6 hPa 0,0 l/m 0 min 0 min 0 W/m 8,4 km/h (2 Bft)
27.03.2015 19:22 7,9 C 4,4 C 72 % 1021,6 hPa 0,0 l/m 0 min 0 min 0 W/m 8,4 km/h (2 Bft)
27.03.2015 19:24 7,9 C 4,4 C 72 % 1021,5 hPa 0,0 l/m 0 min 0 min 0 W/m 8,4 km/h (2 Bft)
27.03.2015 19:26 7,9 C 4,4 C 72 % 1021,6 hPa 0,0 l/m 0 min 0 min 0 W/m 8,4 km/h (2 Bft)
27.03.2015 19:28 7,8 C 4,4 C 72 % 1021,7 hPa 0,0 l/m 0 min 0 min 0 W/m 8,4 km/h (2 Bft)
27.03.2015 19:30 7,8 C 4,4 C 72 % 1021,7 hPa 0,0 l/m 0 min 0 min 0 W/m 10,5 km/h (2 Bft)
27.03.2015 19:32 7,7 C 4,4 C 72 % 1021,7 hPa 0,0 l/m 0 min 0 min 0 W/m 10,5 km/h (2 Bft)
27.03.2015 19:34 7,7 C 4,4 C 72 % 1021,7 hPa 0,0 l/m 0 min 0 min 0 W/m 8,4 km/h (2 Bft)
27.03.2015 19:36 7,6 C 4,4 C 72 % 1021,8 hPa 0,0 l/m 0 min 0 min 0 W/m 8,4 km/h (2 Bft)
27.03.2015 19:38 7,6 C 3,9 C 72 % 1021,8 hPa 0,0 l/m 0 min 0 min 0 W/m 6,3 km/h (2 Bft)
27.03.2015 19:40 7,6 C 3,9 C 73 % 1021,8 hPa 0,0 l/m 0 min 0 min 0 W/m 8,4 km/h (2 Bft)
27.03.2015 19:42 7,5 C 3,9 C 73 % 1021,7 hPa 0,0 l/m 0 min 0 min 0 W/m 6,3 km/h (2 Bft)
27.03.2015 19:44 7,4 C 3,9 C 73 % 1021,7 hPa 0,0 l/m 0 min 0 min 0 W/m 6,3 km/h (2 Bft)
27.03.2015 19:46 7,4 C 3,3 C 73 % 1021,8 hPa 0,0 l/m 0 min 0 min 0 W/m 6,3 km/h (2 Bft)
27.03.2015 19:48 7,3 C 3,3 C 73 % 1021,8 hPa 0,0 l/m 0 min 0 min 0 W/m 4,2 km/h (1 Bft)
27.03.2015 19:50 7,2 C 3,3 C 73 % 1021,8 hPa 0,0 l/m 0 min 0 min 0 W/m 6,3 km/h (2 Bft)
27.03.2015 19:52 7,2 C 3,3 C 73 % 1021,9 hPa 0,0 l/m 0 min 0 min 0 W/m 6,3 km/h (2 Bft)
27.03.2015 19:54 7,1 C 3,3 C 73 % 1021,8 hPa 0,0 l/m 0 min 0 min 0 W/m 6,3 km/h (2 Bft)
27.03.2015 19:56 7,1 C 3,3 C 73 % 1021,8 hPa 0,0 l/m 0 min 0 min 0 W/m 4,2 km/h (1 Bft)
27.03.2015 19:58 7,0 C 2,8 C 73 % 1021,8 hPa 0,0 l/m 0 min 0 min 0 W/m 6,3 km/h (2 Bft)
27.03.2015 20:00 6,9 C 2,8 C 73 % 1021,8 hPa 0,0 l/m 0 min 0 min 0 W/m 4,2 km/h (1 Bft)
27.03.2015 20:02 6,8 C 2,8 C 73 % 1021,8 hPa 0,0 l/m 0 min 0 min 0 W/m 6,3 km/h (2 Bft)
27.03.2015 20:04 6,8 C 2,8 C 73 % 1021,8 hPa 0,0 l/m 0 min 0 min 0 W/m 6,3 km/h (2 Bft)
27.03.2015 20:06 6,7 C 2,8 C 74 % 1021,8 hPa 0,0 l/m 0 min 0 min 0 W/m 4,2 km/h (1 Bft)
27.03.2015 20:08 6,7 C 2,8 C 74 % 1021,9 hPa 0,0 l/m 0 min 0 min 0 W/m 4,2 km/h (1 Bft)
27.03.2015 20:10 6,6 C 2,8 C 74 % 1021,9 hPa 0,0 l/m 0 min 0 min 0 W/m 4,2 km/h (1 Bft)
27.03.2015 20:12 6,5 C 2,8 C 74 % 1021,9 hPa 0,0 l/m 0 min 0 min 0 W/m 4,2 km/h (1 Bft)
27.03.2015 20:14 6,4 C 2,8 C 74 % 1021,9 hPa 0,0 l/m 0 min 0 min 0 W/m 4,2 km/h (1 Bft)
27.03.2015 20:16 6,4 C 2,8 C 74 % 1021,9 hPa 0,0 l/m 0 min 0 min 0 W/m 4,2 km/h (1 Bft)
27.03.2015 20:18 6,3 C 2,2 C 74 % 1021,9 hPa 0,0 l/m 0 min 0 min 0 W/m 4,2 km/h (1 Bft)
27.03.2015 20:20 6,2 C 2,2 C 74 % 1022,0 hPa 0,0 l/m 0 min 0 min 0 W/m 4,2 km/h (1 Bft)
27.03.2015 20:22 6,2 C 2,2 C 74 % 1022,0 hPa 0,0 l/m 0 min 0 min 0 W/m 4,2 km/h (1 Bft)
27.03.2015 20:24 6,1 C 2,2 C 75 % 1022,1 hPa 0,0 l/m 0 min 0 min 0 W/m 4,2 km/h (1 Bft)
27.03.2015 20:26 6,1 C 2,2 C 75 % 1022,1 hPa 0,0 l/m 0 min 0 min 0 W/m 4,2 km/h (1 Bft)
27.03.2015 20:28 6,0 C 2,2 C 75 % 1022,1 hPa 0,0 l/m 0 min 0 min 0 W/m 4,2 km/h (1 Bft)
27.03.2015 20:30 5,9 C 2,2 C 75 % 1022,2 hPa 0,0 l/m 0 min 0 min 0 W/m 4,2 km/h (1 Bft)
27.03.2015 20:32 5,8 C 2,2 C 75 % 1022,2 hPa 0,0 l/m 0 min 0 min 0 W/m 4,2 km/h (1 Bft)
27.03.2015 20:34 5,8 C 2,2 C 75 % 1022,2 hPa 0,0 l/m 0 min 0 min 0 W/m 2,1 km/h (1 Bft)
27.03.2015 20:36 5,7 C 2,2 C 75 % 1022,1 hPa 0,0 l/m 0 min 0 min 0 W/m 4,2 km/h (1 Bft)
27.03.2015 20:38 5,7 C 2,2 C 76 % 1022,1 hPa 0,0 l/m 0 min 0 min 0 W/m 4,2 km/h (1 Bft)
27.03.2015 20:40 5,6 C 2,2 C 76 % 1022,2 hPa 0,0 l/m 0 min 0 min 0 W/m 2,1 km/h (1 Bft)
27.03.2015 20:42 5,6 C 2,2 C 76 % 1022,1 hPa 0,0 l/m 0 min 0 min 0 W/m 4,2 km/h (1 Bft)
27.03.2015 20:44 5,5 C 2,2 C 76 % 1022,2 hPa 0,0 l/m 0 min 0 min 0 W/m 2,1 km/h (1 Bft)
27.03.2015 20:46 5,4 C 2,2 C 76 % 1022,2 hPa 0,0 l/m 0 min 0 min 0 W/m 2,1 km/h (1 Bft)
27.03.2015 20:48 5,4 C 2,2 C 77 % 1022,2 hPa 0,0 l/m 0 min 0 min 0 W/m 4,2 km/h (1 Bft)
27.03.2015 20:50 5,3 C 2,2 C 77 % 1022,2 hPa 0,0 l/m 0 min 0 min 0 W/m 2,1 km/h (1 Bft)
27.03.2015 20:52 5,3 C 1,7 C 77 % 1022,2 hPa 0,0 l/m 0 min 0 min 0 W/m 2,1 km/h (1 Bft)
27.03.2015 20:54 5,2 C 1,7 C 77 % 1022,2 hPa 0,0 l/m 0 min 0 min 0 W/m 2,1 km/h (1 Bft)
27.03.2015 20:56 5,2 C 1,7 C 77 % 1022,2 hPa 0,0 l/m 0 min 0 min 0 W/m 2,1 km/h (1 Bft)
27.03.2015 20:58 5,1 C 1,7 C 78 % 1022,2 hPa 0,0 l/m 0 min 0 min 0 W/m 2,1 km/h (1 Bft)
27.03.2015 21:00 5,0 C 1,7 C 78 % 1022,2 hPa 0,0 l/m 0 min 0 min 0 W/m 2,1 km/h (1 Bft)
27.03.2015 21:02 4,9 C 1,7 C 78 % 1022,2 hPa 0,0 l/m 0 min 0 min 0 W/m 2,1 km/h (1 Bft)
27.03.2015 21:04 4,9 C 1,7 C 78 % 1022,2 hPa 0,0 l/m 0 min 0 min 0 W/m 2,1 km/h (1 Bft)
27.03.2015 21:06 4,8 C 1,7 C 78 % 1022,2 hPa 0,0 l/m 0 min 0 min 0 W/m 0,0 km/h (0 Bft)
27.03.2015 21:08 4,8 C 1,7 C 78 % 1022,2 hPa 0,0 l/m 0 min 0 min 0 W/m 0,0 km/h (0 Bft)
27.03.2015 21:10 4,7 C 1,1 C 78 % 1022,2 hPa 0,0 l/m 0 min 0 min 0 W/m 0,0 km/h (0 Bft)
27.03.2015 21:12 4,7 C 1,1 C 79 % 1022,2 hPa 0,0 l/m 0 min 0 min 0 W/m 0,0 km/h (0 Bft)
27.03.2015 21:14 4,6 C 1,1 C 79 % 1022,3 hPa 0,0 l/m 0 min 0 min 0 W/m 0,0 km/h (0 Bft)
27.03.2015 21:16 4,6 C 1,1 C 79 % 1022,3 hPa 0,0 l/m 0 min 0 min 0 W/m 2,1 km/h (1 Bft)
27.03.2015 21:18 4,5 C 1,1 C 79 % 1022,3 hPa 0,0 l/m 0 min 0 min 0 W/m 2,1 km/h (1 Bft)
27.03.2015 21:20 4,5 C 1,1 C 79 % 1022,4 hPa 0,0 l/m 0 min 0 min 0 W/m 2,1 km/h (1 Bft)
27.03.2015 21:22 4,4 C 1,1 C 80 % 1022,4 hPa 0,0 l/m 0 min 0 min 0 W/m 2,1 km/h (1 Bft)
27.03.2015 21:24 4,4 C 1,1 C 80 % 1022,4 hPa 0,0 l/m 0 min 0 min 0 W/m 2,1 km/h (1 Bft)
27.03.2015 21:26 4,3 C 1,1 C 80 % 1022,4 hPa 0,0 l/m 0 min 0 min 0 W/m 4,2 km/h (1 Bft)
27.03.2015 21:28 4,3 C 1,1 C 80 % 1022,4 hPa 0,0 l/m 0 min 0 min 0 W/m 4,2 km/h (1 Bft)
27.03.2015 21:30 4,2 C 1,1 C 80 % 1022,4 hPa 0,0 l/m 0 min 0 min 0 W/m 2,1 km/h (1 Bft)
27.03.2015 21:32 4,2 C 1,1 C 80 % 1022,5 hPa 0,0 l/m 0 min 0 min 0 W/m 2,1 km/h (1 Bft)
27.03.2015 21:34 4,1 C 1,1 C 81 % 1022,4 hPa 0,0 l/m 0 min 0 min 0 W/m 2,1 km/h (1 Bft)
27.03.2015 21:36 4,1 C 1,1 C 81 % 1022,4 hPa 0,0 l/m 0 min 0 min 0 W/m 2,1 km/h (1 Bft)
27.03.2015 21:38 4,0 C 1,1 C 81 % 1022,4 hPa 0,0 l/m 0 min 0 min 0 W/m 2,1 km/h (1 Bft)
27.03.2015 21:40 4,0 C 1,1 C 81 % 1022,4 hPa 0,0 l/m 0 min 0 min 0 W/m 4,2 km/h (1 Bft)
27.03.2015 21:42 3,9 C 1,1 C 81 % 1022,4 hPa 0,0 l/m 0 min 0 min 0 W/m 4,2 km/h (1 Bft)
27.03.2015 21:44 3,9 C 1,1 C 81 % 1022,4 hPa 0,0 l/m 0 min 0 min 0 W/m 2,1 km/h (1 Bft)
27.03.2015 21:46 3,8 C 1,1 C 81 % 1022,4 hPa 0,0 l/m 0 min 0 min 0 W/m 4,2 km/h (1 Bft)
27.03.2015 21:48 3,8 C 1,1 C 81 % 1022,4 hPa 0,0 l/m 0 min 0 min 0 W/m 4,2 km/h (1 Bft)
27.03.2015 21:50 3,7 C 1,1 C 81 % 1022,4 hPa 0,0 l/m 0 min 0 min 0 W/m 4,2 km/h (1 Bft)
27.03.2015 21:52 3,7 C 1,1 C 81 % 1022,5 hPa 0,0 l/m 0 min 0 min 0 W/m 4,2 km/h (1 Bft)
27.03.2015 21:54 3,6 C 0,6 C 81 % 1022,5 hPa 0,0 l/m 0 min 0 min 0 W/m 4,2 km/h (1 Bft)
27.03.2015 21:56 3,6 C 0,6 C 81 % 1022,4 hPa 0,0 l/m 0 min 0 min 0 W/m 4,2 km/h (1 Bft)
27.03.2015 21:58 3,5 C 0,6 C 81 % 1022,5 hPa 0,0 l/m 0 min 0 min 0 W/m 4,2 km/h (1 Bft)
27.03.2015 22:00 3,5 C 0,6 C 81 % 1022,4 hPa 0,0 l/m 0 min 0 min 0 W/m 4,2 km/h (1 Bft)
27.03.2015 22:02 3,4 C 0,6 C 81 % 1022,5 hPa 0,0 l/m 0 min 0 min 0 W/m 4,2 km/h (1 Bft)
27.03.2015 22:04 3,4 C 0,6 C 82 % 1022,5 hPa 0,0 l/m 0 min 0 min 0 W/m 4,2 km/h (1 Bft)
27.03.2015 22:06 3,3 C 0,6 C 82 % 1022,5 hPa 0,0 l/m 0 min 0 min 0 W/m 4,2 km/h (1 Bft)
27.03.2015 22:08 3,3 C 0,6 C 82 % 1022,5 hPa 0,0 l/m 0 min 0 min 0 W/m 4,2 km/h (1 Bft)
27.03.2015 22:10 3,3 C 0,6 C 82 % 1022,6 hPa 0,0 l/m 0 min 0 min 0 W/m 4,2 km/h (1 Bft)
27.03.2015 22:12 3,3 C 0,6 C 83 % 1022,5 hPa 0,0 l/m 0 min 0 min 0 W/m 4,2 km/h (1 Bft)
27.03.2015 22:14 3,2 C 0,6 C 83 % 1022,5 hPa 0,0 l/m 0 min 0 min 0 W/m 4,2 km/h (1 Bft)
27.03.2015 22:16 3,2 C 0,6 C 83 % 1022,6 hPa 0,0 l/m 0 min 0 min 0 W/m 2,1 km/h (1 Bft)
27.03.2015 22:18 3,2 C 0,6 C 83 % 1022,7 hPa 0,0 l/m 0 min 0 min 0 W/m 4,2 km/h (1 Bft)
27.03.2015 22:20 3,1 C 0,6 C 83 % 1022,7 hPa 0,0 l/m 0 min 0 min 0 W/m 4,2 km/h (1 Bft)
27.03.2015 22:22 3,1 C 0,6 C 83 % 1022,6 hPa 0,0 l/m 0 min 0 min 0 W/m 4,2 km/h (1 Bft)
27.03.2015 22:24 3,0 C 0,6 C 83 % 1022,6 hPa 0,0 l/m 0 min 0 min 0 W/m 2,1 km/h (1 Bft)
27.03.2015 22:26 3,0 C 0,6 C 83 % 1022,6 hPa 0,0 l/m 0 min 0 min 0 W/m 4,2 km/h (1 Bft)
27.03.2015 22:28 2,9 C 0,6 C 84 % 1022,6 hPa 0,0 l/m 0 min 0 min 0 W/m 4,2 km/h (1 Bft)
27.03.2015 22:30 2,9 C 0,6 C 84 % 1022,6 hPa 0,0 l/m 0 min 0 min 0 W/m 4,2 km/h (1 Bft)
27.03.2015 22:32 2,9 C 0,0 C 84 % 1022,6 hPa 0,0 l/m 0 min 0 min 0 W/m 4,2 km/h (1 Bft)
27.03.2015 22:34 2,9 C 0,0 C 84 % 1022,7 hPa 0,0 l/m 0 min 0 min 0 W/m 4,2 km/h (1 Bft)
27.03.2015 22:36 2,8 C 0,0 C 84 % 1022,7 hPa 0,0 l/m 0 min 0 min 0 W/m 4,2 km/h (1 Bft)
27.03.2015 22:38 2,8 C 0,0 C 84 % 1022,6 hPa 0,0 l/m 0 min 0 min 0 W/m 4,2 km/h (1 Bft)
27.03.2015 22:40 2,8 C 0,0 C 85 % 1022,7 hPa 0,0 l/m 0 min 0 min 0 W/m 4,2 km/h (1 Bft)
27.03.2015 22:42 2,7 C 0,0 C 85 % 1022,6 hPa 0,0 l/m 0 min 0 min 0 W/m 4,2 km/h (1 Bft)
27.03.2015 22:44 2,7 C 0,0 C 85 % 1022,7 hPa 0,0 l/m 0 min 0 min 0 W/m 2,1 km/h (1 Bft)
27.03.2015 22:46 2,7 C 0,0 C 85 % 1022,7 hPa 0,0 l/m 0 min 0 min 0 W/m 4,2 km/h (1 Bft)
27.03.2015 22:48 2,7 C 0,0 C 85 % 1022,7 hPa 0,0 l/m 0 min 0 min 0 W/m 4,2 km/h (1 Bft)
27.03.2015 22:50 2,6 C 0,0 C 85 % 1022,7 hPa 0,0 l/m 0 min 0 min 0 W/m 4,2 km/h (1 Bft)
27.03.2015 22:52 2,6 C 0,0 C 85 % 1022,7 hPa 0,0 l/m 0 min 0 min 0 W/m 4,2 km/h (1 Bft)
27.03.2015 22:54 2,6 C 0,0 C 86 % 1022,7 hPa 0,0 l/m 0 min 0 min 0 W/m 4,2 km/h (1 Bft)
27.03.2015 22:56 2,5 C 0,0 C 86 % 1022,7 hPa 0,0 l/m 0 min 0 min 0 W/m 4,2 km/h (1 Bft)
27.03.2015 22:58 2,5 C 0,0 C 86 % 1022,7 hPa 0,0 l/m 0 min 0 min 0 W/m 4,2 km/h (1 Bft)
27.03.2015 23:00 2,5 C 0,0 C 86 % 1022,7 hPa 0,0 l/m 0 min 0 min 0 W/m 4,2 km/h (1 Bft)
27.03.2015 23:02 2,4 C 0,0 C 86 % 1022,7 hPa 0,0 l/m 0 min 0 min 0 W/m 4,2 km/h (1 Bft)
27.03.2015 23:04 2,4 C 0,6 C 87 % 1022,7 hPa 0,0 l/m 0 min 0 min 0 W/m 4,2 km/h (1 Bft)
27.03.2015 23:06 2,4 C 0,6 C 87 % 1022,6 hPa 0,0 l/m 0 min 0 min 0 W/m 4,2 km/h (1 Bft)
27.03.2015 23:08 2,4 C 0,6 C 87 % 1022,6 hPa 0,0 l/m 0 min 0 min 0 W/m 4,2 km/h (1 Bft)
27.03.2015 23:10 2,4 C 0,6 C 87 % 1022,6 hPa 0,0 l/m 0 min 0 min 0 W/m 4,2 km/h (1 Bft)
27.03.2015 23:12 2,4 C 0,6 C 87 % 1022,6 hPa 0,0 l/m 0 min 0 min 0 W/m 4,2 km/h (1 Bft)
27.03.2015 23:14 2,4 C 0,6 C 88 % 1022,6 hPa 0,0 l/m 0 min 0 min 0 W/m 4,2 km/h (1 Bft)
27.03.2015 23:16 2,4 C 0,6 C 88 % 1022,6 hPa 0,0 l/m 0 min 0 min 0 W/m 4,2 km/h (1 Bft)
27.03.2015 23:18 2,4 C 1,1 C 88 % 1022,6 hPa 0,0 l/m 0 min 0 min 0 W/m 2,1 km/h (1 Bft)
27.03.2015 23:20 2,4 C 1,1 C 88 % 1022,6 hPa 0,0 l/m 0 min 0 min 0 W/m 4,2 km/h (1 Bft)
27.03.2015 23:22 2,4 C 1,1 C 88 % 1022,7 hPa 0,0 l/m 0 min 0 min 0 W/m 4,2 km/h (1 Bft)
27.03.2015 23:24 2,3 C 1,1 C 88 % 1022,8 hPa 0,0 l/m 0 min 0 min 0 W/m 4,2 km/h (1 Bft)
27.03.2015 23:26 2,3 C 1,1 C 89 % 1022,8 hPa 0,0 l/m 0 min 0 min 0 W/m 2,1 km/h (1 Bft)
27.03.2015 23:28 2,3 C 1,1 C 89 % 1022,7 hPa 0,0 l/m 0 min 0 min 0 W/m 2,1 km/h (1 Bft)
27.03.2015 23:30 2,3 C 1,1 C 89 % 1022,7 hPa 0,0 l/m 0 min 0 min 0 W/m 2,1 km/h (1 Bft)
27.03.2015 23:32 2,4 C 1,1 C 89 % 1022,7 hPa 0,0 l/m 0 min 0 min 0 W/m 2,1 km/h (1 Bft)
27.03.2015 23:34 2,4 C 1,1 C 89 % 1022,7 hPa 0,0 l/m 0 min 0 min 0 W/m 2,1 km/h (1 Bft)
27.03.2015 23:36 2,4 C 1,1 C 89 % 1022,8 hPa 0,0 l/m 0 min 0 min 0 W/m 2,1 km/h (1 Bft)
27.03.2015 23:38 2,4 C 1,1 C 90 % 1022,9 hPa 0,0 l/m 0 min 0 min 0 W/m 2,1 km/h (1 Bft)
27.03.2015 23:40 2,4 C 1,1 C 90 % 1022,9 hPa 0,0 l/m 0 min 0 min 0 W/m 4,2 km/h (1 Bft)
27.03.2015 23:42 2,4 C 1,1 C 90 % 1022,8 hPa 0,0 l/m 0 min 0 min 0 W/m 4,2 km/h (1 Bft)
27.03.2015 23:44 2,4 C 1,1 C 90 % 1022,9 hPa 0,0 l/m 0 min 0 min 0 W/m 4,2 km/h (1 Bft)
27.03.2015 23:46 2,4 C 1,1 C 90 % 1022,8 hPa 0,0 l/m 0 min 0 min 0 W/m 4,2 km/h (1 Bft)
27.03.2015 23:48 2,4 C 1,1 C 90 % 1022,9 hPa 0,0 l/m 0 min 0 min 0 W/m 4,2 km/h (1 Bft)
27.03.2015 23:50 2,4 C 1,1 C 90 % 1022,9 hPa 0,0 l/m 0 min 0 min 0 W/m 4,2 km/h (1 Bft)
27.03.2015 23:52 2,4 C 1,1 C 91 % 1023,0 hPa 0,0 l/m 0 min 0 min 0 W/m 2,1 km/h (1 Bft)
27.03.2015 23:54 2,5 C 1,1 C 91 % 1023,0 hPa 0,0 l/m 0 min 0 min 0 W/m 4,2 km/h (1 Bft)
27.03.2015 23:56 2,4 C 1,7 C 91 % 1022,9 hPa 0,0 l/m 0 min 0 min 0 W/m 4,2 km/h (1 Bft)
27.03.2015 23:58 2,5 C 1,7 C 91 % 1023,0 hPa 0,0 l/m 0 min 0 min 0 W/m 4,2 km/h (1 Bft)
_ Min-Zeit 23:24 22:32 15:22 00:00 - - - - 21:06
Minimum _ 2,3 C 0,0 C 63 % 1008,3 hPa - - - - 0,0 km/h (0 Bft)
_ Max-Zeit 14:42 14:34 00:00 23:52 00:00 07:24 02:02 13:42 14:18
Maximum _ 10,5 C 12,2 C 96 % 1023,0 hPa 0,0 l/m 2 min 2 min 847 W/m 50,2 km/h
W-NW (7 Bft)
Durchschnitt _ 6,6 C 5,1 C 81 % 1016,4 hPa #0,0 l/m #1:12 h #24 min. 132 W/m 19,7 km/h (3 Bft)
© 2015 W. Hausmann